Time,TemperatureF,DewpointF,PressureIn,WindDirection,WindDirectionDegrees,WindSpeedMPH,WindSpeedGustMPH,Humidity,HourlyPrecipIn,Conditions,Clouds,dailyrainin,SoftwareType,DateUTC
2013-03-20 00:02:00,62.8,36.7,30.18,NE,45,8.0,11.0,38,0.00,,,0.00,WUHU21623XXSP,2013-03-20 05:02:00,
2013-03-20 00:03:00,62.8,36.7,30.18,NNE,22,11.0,11.0,38,0.00,,,0.00,WUHU21623XXSP,2013-03-20 05:03:00,
2013-03-20 00:04:00,62.8,36.7,30.17,NE,41,7.0,11.0,38,0.00,,,0.00,WUHU21623XXSP,2013-03-20 05:04:00,
2013-03-20 00:08:00,62.4,37.1,30.17,NE,45,9.0,11.0,39,0.00,,,0.00,WUHU21623XXSP,2013-03-20 05:08:00,
2013-03-20 00:09:00,62.4,37.1,30.17,NE,45,9.0,11.0,39,0.00,,,0.00,WUHU21623XXSP,2013-03-20 05:09:00,
2013-03-20 00:13:00,62.4,37.1,30.17,NE,41,6.0,10.0,39,0.00,,,0.00,WUHU21623XXSP,2013-03-20 05:13:00,
2013-03-20 00:14:00,62.4,37.1,30.17,NNE,22,8.0,11.0,39,0.00,,,0.00,WUHU21623XXSP,2013-03-20 05:14:00,
2013-03-20 00:18:00,62.2,36.9,30.17,NE,45,9.0,11.0,39,0.00,,,0.00,WUHU21623XXSP,2013-03-20 05:18:00,
2013-03-20 00:19:00,62.2,36.9,30.17,NE,45,12.0,12.0,39,0.00,,,0.00,WUHU21623XXSP,2013-03-20 05:19:00,
2013-03-20 00:23:00,62.2,36.9,30.18,North,7,4.0,12.0,39,0.00,,,0.00,WUHU21623XXSP,2013-03-20 05:23:00,
2013-03-20 00:24:00,62.2,36.9,30.18,NNE,22,4.0,12.0,39,0.00,,,0.00,WUHU21623XXSP,2013-03-20 05:24:00,
2013-03-20 00:25:00,62.1,36.7,30.19,NNE,22,9.0,12.0,39,0.00,,,0.00,WUHU21623XXSP,2013-03-20 05:25:00,
2013-03-20 00:28:00,61.9,36.6,30.19,North,0,5.0,12.0,39,0.00,,,0.00,WUHU21623XXSP,2013-03-20 05:28:00,
2013-03-20 00:29:00,61.9,36.6,30.19,North,353,3.0,12.0,39,0.00,,,0.00,WUHU21623XXSP,2013-03-20 05:29:00,
2013-03-20 00:30:00,61.9,36.6,30.19,North,359,4.0,10.0,39,0.00,,,0.00,WUHU21623XXSP,2013-03-20 05:30:00,
2013-03-20 00:33:00,61.7,36.4,30.19,North,355,4.0,10.0,39,0.00,,,0.00,WUHU21623XXSP,2013-03-20 05:33:00,
2013-03-20 00:34:00,61.7,36.4,30.19,North,1,4.0,10.0,39,0.00,,,0.00,WUHU21623XXSP,2013-03-20 05:34:00,
2013-03-20 00:35:00,61.5,36.2,30.20,North,9,3.0,10.0,39,0.00,,,0.00,WUHU21623XXSP,2013-03-20 05:35:00,
2013-03-20 00:39:00,61.5,36.2,30.20,North,357,3.0,8.0,39,0.00,,,0.00,WUHU21623XXSP,2013-03-20 05:39:00,
2013-03-20 00:40:00,61.5,36.2,30.20,North,355,4.0,7.0,39,0.00,,,0.00,WUHU21623XXSP,2013-03-20 05:40:00,
2013-03-20 00:44:00,61.3,36.1,30.20,NNE,16,3.0,6.0,39,0.00,,,0.00,WUHU21623XXSP,2013-03-20 05:44:00,
2013-03-20 00:45:00,61.3,36.1,30.20,North,5,3.0,6.0,39,0.00,,,0.00,WUHU21623XXSP,2013-03-20 05:45:00,
2013-03-20 00:49:00,61.2,35.9,30.19,NNE,20,4.0,7.0,39,0.00,,,0.00,WUHU21623XXSP,2013-03-20 05:49:00,
2013-03-20 00:50:00,61.2,35.9,30.19,ENE,67,6.0,7.0,39,0.00,,,0.00,WUHU21623XXSP,2013-03-20 05:50:00,
2013-03-20 00:54:00,61.0,35.8,30.19,NNE,22,7.0,10.0,39,0.00,,,0.00,WUHU21623XXSP,2013-03-20 05:54:00,
2013-03-20 00:55:00,61.0,35.8,30.19,NNE,29,4.0,10.0,39,0.00,,,0.00,WUHU21623XXSP,2013-03-20 05:55:00,
2013-03-20 00:59:00,61.0,35.8,30.19,NNE,33,5.0,10.0,39,0.00,,,0.00,WUHU21623XXSP,2013-03-20 05:59:00,
2013-03-20 01:00:00,61.0,35.8,30.19,NNE,33,5.0,10.0,39,0.00,,,0.00,WUHU21623XXSP,2013-03-20 06:00:00,
2013-03-20 01:09:00,61.0,35.8,30.19,NNE,22,0.0,3.0,39,0.00,,,0.00,WUHU21623XXSP,2013-03-20 06:09:00,
2013-03-20 01:14:00,61.0,36.5,30.20,NNE,22,7.0,7.0,40,0.00,,,0.00,WUHU21623XXSP,2013-03-20 06:14:00,
2013-03-20 01:19:00,61.0,36.5,30.20,NNE,27,3.0,7.0,40,0.00,,,0.00,WUHU21623XXSP,2013-03-20 06:19:00,
2013-03-20 01:24:00,60.6,36.2,30.21,NE,45,5.0,5.0,40,0.00,,,0.00,WUHU21623XXSP,2013-03-20 06:24:00,
2013-03-20 01:29:00,60.6,36.2,30.21,North,0,3.0,5.0,40,0.00,,,0.00,WUHU21623XXSP,2013-03-20 06:29:00,
2013-03-20 01:30:00,60.6,36.2,30.21,North,7,3.0,5.0,40,0.00,,,0.00,WUHU21623XXSP,2013-03-20 06:30:00,
2013-03-20 01:34:00,60.6,36.2,30.22,NNE,22,4.0,5.0,40,0.00,,,0.00,WUHU21623XXSP,2013-03-20 06:34:00,
2013-03-20 01:35:00,60.6,36.2,30.22,North,0,4.0,5.0,40,0.00,,,0.00,WUHU21623XXSP,2013-03-20 06:35:00,
2013-03-20 01:39:00,60.6,36.2,30.22,North,11,2.0,5.0,40,0.00,,,0.00,WUHU21623XXSP,2013-03-20 06:39:00,
2013-03-20 01:40:00,60.6,36.2,30.22,North,0,3.0,5.0,40,0.00,,,0.00,WUHU21623XXSP,2013-03-20 06:40:00,
2013-03-20 01:44:00,60.6,36.2,30.23,NNE,20,2.0,5.0,40,0.00,,,0.00,WUHU21623XXSP,2013-03-20 06:44:00,
2013-03-20 01:45:00,60.6,36.2,30.23,NNW,337,3.0,5.0,40,0.00,,,0.00,WUHU21623XXSP,2013-03-20 06:45:00,
2013-03-20 01:49:00,60.4,36.0,30.22,NNE,22,7.0,7.0,40,0.00,,,0.00,WUHU21623XXSP,2013-03-20 06:49:00,
2013-03-20 01:50:00,60.4,36.0,30.22,NNE,23,4.0,7.0,40,0.00,,,0.00,WUHU21623XXSP,2013-03-20 06:50:00,
2013-03-20 01:51:00,60.4,36.0,30.22,NNE,26,4.0,7.0,40,0.00,,,0.00,WUHU21623XXSP,2013-03-20 06:51:00,
2013-03-20 01:55:00,60.3,35.8,30.23,NNW,337,2.0,7.0,40,0.00,,,0.00,WUHU21623XXSP,2013-03-20 06:55:00,
2013-03-20 01:57:00,60.1,35.7,30.23,NNE,15,3.0,7.0,40,0.00,,,0.00,WUHU21623XXSP,2013-03-20 06:57:00,
2013-03-20 02:00:00,60.1,35.7,30.23,NNE,14,3.0,5.0,40,0.00,,,0.00,WUHU21623XXSP,2013-03-20 07:00:00,
2013-03-20 02:05:00,60.1,35.7,30.23,North,0,1.0,5.0,40,0.00,,,0.00,WUHU21623XXSP,2013-03-20 07:05:00,
2013-03-20 02:06:00,60.1,35.7,30.23,North,0,1.0,5.0,40,0.00,,,0.00,WUHU21623XXSP,2013-03-20 07:06:00,
2013-03-20 02:10:00,59.7,35.9,30.23,NNE,16,4.0,8.0,41,0.00,,,0.00,WUHU21623XXSP,2013-03-20 07:10:00,
2013-03-20 02:11:00,59.7,35.9,30.23,NNE,14,3.0,8.0,41,0.00,,,0.00,WUHU21623XXSP,2013-03-20 07:11:00,
2013-03-20 02:12:00,59.7,35.9,30.23,North,4,3.0,8.0,41,0.00,,,0.00,WUHU21623XXSP,2013-03-20 07:12:00,
2013-03-20 02:16:00,59.5,35.8,30.23,North,6,4.0,8.0,41,0.00,,,0.00,WUHU21623XXSP,2013-03-20 07:16:00,
2013-03-20 02:17:00,59.5,35.8,30.23,NE,45,3.0,8.0,41,0.00,,,0.00,WUHU21623XXSP,2013-03-20 07:17:00,
2013-03-20 02:18:00,59.5,35.8,30.23,NNE,17,3.0,8.0,41,0.00,,,0.00,WUHU21623XXSP,2013-03-20 07:18:00,
2013-03-20 02:21:00,59.5,35.8,30.23,NNE,22,3.0,8.0,41,0.00,,,0.00,WUHU21623XXSP,2013-03-20 07:21:00,
2013-03-20 02:22:00,59.5,35.8,30.23,North,5,3.0,8.0,41,0.00,,,0.00,WUHU21623XXSP,2013-03-20 07:22:00,
2013-03-20 02:23:00,59.5,35.8,30.23,North,0,3.0,8.0,41,0.00,,,0.00,WUHU21623XXSP,2013-03-20 07:23:00,
2013-03-20 02:26:00,59.4,35.6,30.23,NNE,22,5.0,5.0,41,0.00,,,0.00,WUHU21623XXSP,2013-03-20 07:26:00,
2013-03-20 02:27:00,59.4,36.2,30.23,NNE,20,4.0,5.0,42,0.00,,,0.00,WUHU21623XXSP,2013-03-20 07:27:00,
2013-03-20 02:28:00,59.4,36.2,30.23,NNE,22,4.0,5.0,42,0.00,,,0.00,WUHU21623XXSP,2013-03-20 07:28:00,
2013-03-20 02:31:00,59.2,36.0,30.23,North,0,6.0,6.0,42,0.00,,,0.00,WUHU21623XXSP,2013-03-20 07:31:00,
2013-03-20 02:32:00,59.2,36.0,30.24,North,3,3.0,6.0,42,0.00,,,0.00,WUHU21623XXSP,2013-03-20 07:32:00,
2013-03-20 02:33:00,59.2,36.0,30.24,NNE,22,3.0,6.0,42,0.00,,,0.00,WUHU21623XXSP,2013-03-20 07:33:00,
2013-03-20 02:37:00,59.0,35.9,30.23,North,7,3.0,6.0,42,0.00,,,0.00,WUHU21623XXSP,2013-03-20 07:37:00,
2013-03-20 02:38:00,58.8,35.7,30.23,North,0,2.0,6.0,42,0.00,,,0.00,WUHU21623XXSP,2013-03-20 07:38:00,
2013-03-20 02:42:00,58.8,35.7,30.24,North,0,6.0,6.0,42,0.00,,,0.00,WUHU21623XXSP,2013-03-20 07:42:00,
2013-03-20 02:43:00,58.8,35.7,30.24,NNE,14,4.0,6.0,42,0.00,,,0.00,WUHU21623XXSP,2013-03-20 07:43:00,
2013-03-20 02:48:00,58.8,35.7,30.24,NNE,22,4.0,7.0,42,0.00,,,0.00,WUHU21623XXSP,2013-03-20 07:48:00,
2013-03-20 02:49:00,58.8,35.7,30.25,NNE,17,3.0,7.0,42,0.00,,,0.00,WUHU21623XXSP,2013-03-20 07:49:00,
2013-03-20 02:53:00,58.8,35.7,30.25,North,0,4.0,7.0,42,0.00,,,0.00,WUHU21623XXSP,2013-03-20 07:53:00,
2013-03-20 02:54:00,58.8,35.7,30.25,NNE,13,4.0,7.0,42,0.00,,,0.00,WUHU21623XXSP,2013-03-20 07:54:00,
2013-03-20 02:58:00,58.8,36.3,30.25,North,352,5.0,6.0,43,0.00,,,0.00,WUHU21623XXSP,2013-03-20 07:58:00,
2013-03-20 02:59:00,58.6,36.1,30.25,North,356,3.0,6.0,43,0.00,,,0.00,WUHU21623XXSP,2013-03-20 07:59:00,
2013-03-20 03:03:00,58.3,35.8,30.25,North,2,6.0,9.0,43,0.00,,,0.00,WUHU21623XXSP,2013-03-20 08:03:00,
2013-03-20 03:04:00,58.3,35.8,30.25,NNE,22,8.0,9.0,43,0.00,,,0.00,WUHU21623XXSP,2013-03-20 08:04:00,
2013-03-20 03:08:00,58.1,35.6,30.26,North,0,5.0,10.0,43,0.00,,,0.00,WUHU21623XXSP,2013-03-20 08:08:00,
2013-03-20 03:09:00,57.9,35.5,30.26,North,9,4.0,10.0,43,0.00,,,0.00,WUHU21623XXSP,2013-03-20 08:09:00,
2013-03-20 03:13:00,57.9,35.5,30.25,NNE,12,3.0,10.0,43,0.00,,,0.00,WUHU21623XXSP,2013-03-20 08:13:00,
2013-03-20 03:14:00,57.9,35.5,30.25,North,8,3.0,10.0,43,0.00,,,0.00,WUHU21623XXSP,2013-03-20 08:14:00,
2013-03-20 03:18:00,57.7,35.9,30.25,NNE,22,5.0,7.0,44,0.00,,,0.00,WUHU21623XXSP,2013-03-20 08:18:00,
2013-03-20 03:19:00,57.7,35.9,30.25,North,6,4.0,7.0,44,0.00,,,0.00,WUHU21623XXSP,2013-03-20 08:19:00,
2013-03-20 03:23:00,57.7,35.9,30.26,North,0,3.0,6.0,44,0.00,,,0.00,WUHU21623XXSP,2013-03-20 08:23:00,
2013-03-20 03:24:00,57.6,35.7,30.25,North,354,3.0,6.0,44,0.00,,,0.00,WUHU21623XXSP,2013-03-20 08:24:00,
2013-03-20 03:28:00,57.4,35.5,30.26,North,0,3.0,9.0,44,0.00,,,0.00,WUHU21623XXSP,2013-03-20 08:28:00,
2013-03-20 03:29:00,57.4,35.5,30.25,NNE,22,4.0,9.0,44,0.00,,,0.00,WUHU21623XXSP,2013-03-20 08:29:00,
2013-03-20 03:33:00,57.4,35.5,30.25,NE,45,3.0,9.0,44,0.00,,,0.00,WUHU21623XXSP,2013-03-20 08:33:00,
2013-03-20 03:34:00,57.4,35.5,30.25,NNE,22,5.0,9.0,44,0.00,,,0.00,WUHU21623XXSP,2013-03-20 08:34:00,
2013-03-20 03:35:00,57.4,35.5,30.25,NE,45,7.0,7.0,44,0.00,,,0.00,WUHU21623XXSP,2013-03-20 08:35:00,
2013-03-20 03:39:00,57.4,35.5,30.25,NE,44,3.0,7.0,44,0.00,,,0.00,WUHU21623XXSP,2013-03-20 08:39:00,
2013-03-20 03:40:00,57.4,35.5,30.25,NNE,19,5.0,8.0,44,0.00,,,0.00,WUHU21623XXSP,2013-03-20 08:40:00,
2013-03-20 03:44:00,57.4,35.5,30.25,NE,35,4.0,8.0,44,0.00,,,0.00,WUHU21623XXSP,2013-03-20 08:44:00,
2013-03-20 03:45:00,57.4,35.5,30.25,NE,38,3.0,8.0,44,0.00,,,0.00,WUHU21623XXSP,2013-03-20 08:45:00,
2013-03-20 03:46:00,57.4,35.5,30.25,NNE,22,4.0,8.0,44,0.00,,,0.00,WUHU21623XXSP,2013-03-20 08:46:00,
2013-03-20 03:49:00,57.4,35.5,30.25,NE,45,5.0,8.0,44,0.00,,,0.00,WUHU21623XXSP,2013-03-20 08:49:00,
2013-03-20 03:50:00,57.6,35.7,30.24,NNE,22,7.0,7.0,44,0.00,,,0.00,WUHU21623XXSP,2013-03-20 08:50:00,
2013-03-20 03:51:00,57.6,35.7,30.24,NE,45,5.0,7.0,44,0.00,,,0.00,WUHU21623XXSP,2013-03-20 08:51:00,
2013-03-20 03:54:00,57.4,36.1,30.24,NE,45,4.0,7.0,45,0.00,,,0.00,WUHU21623XXSP,2013-03-20 08:54:00,
2013-03-20 03:55:00,57.6,35.7,30.24,NNE,22,5.0,7.0,44,0.00,,,0.00,WUHU21623XXSP,2013-03-20 08:55:00,
2013-03-20 03:57:00,57.4,36.1,30.24,NE,38,4.0,7.0,45,0.00,,,0.00,WUHU21623XXSP,2013-03-20 08:57:00,
2013-03-20 04:00:00,57.4,36.1,30.24,NNE,22,3.0,7.0,45,0.00,,,0.00,WUHU21623XXSP,2013-03-20 09:00:00,
2013-03-20 04:02:00,57.4,36.1,30.24,North,0,2.0,6.0,45,0.00,,,0.00,WUHU21623XXSP,2013-03-20 09:02:00,
2013-03-20 04:05:00,57.4,36.1,30.24,NNE,22,5.0,5.0,45,0.00,,,0.00,WUHU21623XXSP,2013-03-20 09:05:00,
2013-03-20 04:06:00,57.4,36.1,30.24,NNE,18,4.0,5.0,45,0.00,,,0.00,WUHU21623XXSP,2013-03-20 09:06:00,
2013-03-20 04:07:00,57.4,36.1,30.24,NNE,22,4.0,5.0,45,0.00,,,0.00,WUHU21623XXSP,2013-03-20 09:07:00,
2013-03-20 04:10:00,57.4,36.1,30.24,North,11,2.0,5.0,45,0.00,,,0.00,WUHU21623XXSP,2013-03-20 09:10:00,
2013-03-20 04:12:00,57.0,35.8,30.24,NNE,22,5.0,5.0,45,0.00,,,0.00,WUHU21623XXSP,2013-03-20 09:12:00,
2013-03-20 04:15:00,57.0,35.8,30.24,NNE,22,5.0,6.0,45,0.00,,,0.00,WUHU21623XXSP,2013-03-20 09:15:00,
2013-03-20 04:17:00,57.0,35.8,30.24,NNE,26,4.0,7.0,45,0.00,,,0.00,WUHU21623XXSP,2013-03-20 09:17:00,
2013-03-20 04:20:00,57.0,35.8,30.24,NNE,24,3.0,7.0,45,0.00,,,0.00,WUHU21623XXSP,2013-03-20 09:20:00,
2013-03-20 04:23:00,57.0,35.8,30.24,NE,45,4.0,7.0,45,0.00,,,0.00,WUHU21623XXSP,2013-03-20 09:23:00,
2013-03-20 04:25:00,57.0,35.8,30.24,NE,45,4.0,7.0,45,0.00,,,0.00,WUHU21623XXSP,2013-03-20 09:25:00,
2013-03-20 04:28:00,57.0,35.8,30.24,NNE,25,5.0,7.0,45,0.00,,,0.00,WUHU21623XXSP,2013-03-20 09:28:00,
2013-03-20 04:30:00,57.0,35.8,30.25,NE,45,4.0,7.0,45,0.00,,,0.00,WUHU21623XXSP,2013-03-20 09:30:00,
2013-03-20 04:33:00,57.0,35.8,30.24,North,0,5.0,7.0,45,0.00,,,0.00,WUHU21623XXSP,2013-03-20 09:33:00,
2013-03-20 04:35:00,57.0,35.8,30.25,NNE,17,3.0,7.0,45,0.00,,,0.00,WUHU21623XXSP,2013-03-20 09:35:00,
2013-03-20 04:38:00,57.0,35.8,30.25,North,0,4.0,7.0,45,0.00,,,0.00,WUHU21623XXSP,2013-03-20 09:38:00,
2013-03-20 04:40:00,56.8,35.6,30.25,NNE,22,3.0,7.0,45,0.00,,,0.00,WUHU21623XXSP,2013-03-20 09:40:00,
2013-03-20 04:43:00,56.5,35.3,30.25,NNE,22,7.0,7.0,45,0.00,,,0.00,WUHU21623XXSP,2013-03-20 09:43:00,
2013-03-20 04:46:00,56.5,35.3,30.25,NNE,33,5.0,7.0,45,0.00,,,0.00,WUHU21623XXSP,2013-03-20 09:46:00,
2013-03-20 04:48:00,56.3,35.1,30.25,North,0,3.0,7.0,45,0.00,,,0.00,WUHU21623XXSP,2013-03-20 09:48:00,
2013-03-20 04:49:00,56.3,35.1,30.25,NNE,22,4.0,7.0,45,0.00,,,0.00,WUHU21623XXSP,2013-03-20 09:49:00,
2013-03-20 04:51:00,56.1,35.5,30.25,NNE,24,4.0,7.0,46,0.00,,,0.00,WUHU21623XXSP,2013-03-20 09:51:00,
2013-03-20 04:53:00,56.1,35.5,30.25,NNE,22,6.0,7.0,46,0.00,,,0.00,WUHU21623XXSP,2013-03-20 09:53:00,
2013-03-20 04:54:00,56.1,35.5,30.25,NNE,22,5.0,7.0,46,0.00,,,0.00,WUHU21623XXSP,2013-03-20 09:54:00,
2013-03-20 04:56:00,56.1,35.5,30.25,NNE,24,3.0,7.0,46,0.00,,,0.00,WUHU21623XXSP,2013-03-20 09:56:00,
2013-03-20 04:58:00,56.1,35.5,30.25,NE,35,4.0,7.0,46,0.00,,,0.00,WUHU21623XXSP,2013-03-20 09:58:00,
2013-03-20 04:59:00,56.1,35.5,30.25,NE,35,4.0,7.0,46,0.00,,,0.00,WUHU21623XXSP,2013-03-20 09:59:00,
2013-03-20 05:04:00,56.1,35.5,30.25,NNE,22,6.0,6.0,46,0.00,,,0.00,WUHU21623XXSP,2013-03-20 10:04:00,
2013-03-20 05:09:00,56.1,35.5,30.25,NNE,22,5.0,6.0,46,0.00,,,0.00,WUHU21623XXSP,2013-03-20 10:09:00,
2013-03-20 05:14:00,56.1,35.5,30.25,NE,36,4.0,7.0,46,0.00,,,0.00,WUHU21623XXSP,2013-03-20 10:14:00,
2013-03-20 05:15:00,56.1,35.5,30.25,NE,45,5.0,7.0,46,0.00,,,0.00,WUHU21623XXSP,2013-03-20 10:15:00,
2013-03-20 05:19:00,56.1,35.5,30.25,NE,48,5.0,7.0,46,0.00,,,0.00,WUHU21623XXSP,2013-03-20 10:19:00,
2013-03-20 05:20:00,56.1,35.5,30.25,NE,48,5.0,7.0,46,0.00,,,0.00,WUHU21623XXSP,2013-03-20 10:20:00,
2013-03-20 05:25:00,56.1,35.5,30.26,NNE,32,3.0,7.0,46,0.00,,,0.00,WUHU21623XXSP,2013-03-20 10:25:00,
2013-03-20 05:30:00,56.1,35.5,30.26,NE,53,3.0,6.0,46,0.00,,,0.00,WUHU21623XXSP,2013-03-20 10:30:00,
2013-03-20 05:35:00,56.1,35.5,30.26,NE,45,0.0,5.0,46,0.00,,,0.00,WUHU21623XXSP,2013-03-20 10:35:00,
2013-03-20 05:40:00,56.1,35.5,30.26,North,0,2.0,4.0,46,0.00,,,0.00,WUHU21623XXSP,2013-03-20 10:40:00,
2013-03-20 05:41:00,56.1,35.5,30.26,NNE,22,3.0,4.0,46,0.00,,,0.00,WUHU21623XXSP,2013-03-20 10:41:00,
2013-03-20 05:45:00,56.1,35.5,30.27,NNE,15,2.0,4.0,46,0.00,,,0.00,WUHU21623XXSP,2013-03-20 10:45:00,
2013-03-20 05:46:00,56.1,35.5,30.27,NNE,17,2.0,4.0,46,0.00,,,0.00,WUHU21623XXSP,2013-03-20 10:46:00,
2013-03-20 05:47:00,56.1,35.5,30.27,North,2,2.0,4.0,46,0.00,,,0.00,WUHU21623XXSP,2013-03-20 10:47:00,
2013-03-20 05:50:00,55.9,35.3,30.27,NNE,22,4.0,4.0,46,0.00,,,0.00,WUHU21623XXSP,2013-03-20 10:50:00,
2013-03-20 05:51:00,55.9,35.3,30.27,North,0,3.0,4.0,46,0.00,,,0.00,WUHU21623XXSP,2013-03-20 10:51:00,
2013-03-20 05:52:00,55.9,35.3,30.27,NE,45,2.0,4.0,46,0.00,,,0.00,WUHU21623XXSP,2013-03-20 10:52:00,
2013-03-20 05:55:00,55.9,35.3,30.27,NNE,27,3.0,5.0,46,0.00,,,0.00,WUHU21623XXSP,2013-03-20 10:55:00,
2013-03-20 05:56:00,55.9,35.3,30.27,NNE,20,2.0,5.0,46,0.00,,,0.00,WUHU21623XXSP,2013-03-20 10:56:00,
2013-03-20 05:57:00,55.9,35.3,30.27,NNE,22,2.0,5.0,46,0.00,,,0.00,WUHU21623XXSP,2013-03-20 10:57:00,
2013-03-20 06:01:00,55.9,35.3,30.27,North,0,5.0,5.0,46,0.00,,,0.00,WUHU21623XXSP,2013-03-20 11:01:00,
2013-03-20 06:03:00,55.8,35.3,30.27,North,6,3.0,5.0,46,0.00,,,0.00,WUHU21623XXSP,2013-03-20 11:03:00,
2013-03-20 06:07:00,55.8,35.1,30.28,NNW,348,2.0,5.0,46,0.00,,,0.00,WUHU21623XXSP,2013-03-20 11:07:00,
2013-03-20 06:08:00,55.8,35.1,30.28,North,11,2.0,5.0,46,0.00,,,0.00,WUHU21623XXSP,2013-03-20 11:08:00,
2013-03-20 06:12:00,55.6,35.0,30.27,North,0,3.0,4.0,46,0.00,,,0.00,WUHU21623XXSP,2013-03-20 11:12:00,
2013-03-20 06:13:00,55.6,35.0,30.27,North,7,2.0,4.0,46,0.00,,,0.00,WUHU21623XXSP,2013-03-20 11:13:00,
2013-03-20 06:18:00,55.6,35.0,30.28,North,8,3.0,4.0,46,0.00,,,0.00,WUHU21623XXSP,2013-03-20 11:18:00,
2013-03-20 06:23:00,55.4,34.8,30.28,NE,34,3.0,4.0,46,0.00,,,0.00,WUHU21623XXSP,2013-03-20 11:23:00,
2013-03-20 06:24:00,55.4,34.8,30.28,NE,45,2.0,4.0,46,0.00,,,0.00,WUHU21623XXSP,2013-03-20 11:24:00,
2013-03-20 06:28:00,55.2,34.6,30.28,NNE,22,2.0,4.0,46,0.00,,,0.00,WUHU21623XXSP,2013-03-20 11:28:00,
2013-03-20 06:29:00,55.2,34.6,30.28,NNE,22,2.0,4.0,46,0.00,,,0.00,WUHU21623XXSP,2013-03-20 11:29:00,
2013-03-20 06:34:00,55.2,34.6,30.28,North,1,2.0,3.0,46,0.00,,,0.00,WUHU21623XXSP,2013-03-20 11:34:00,
2013-03-20 06:35:00,55.2,34.6,30.28,North,0,3.0,3.0,46,0.00,,,0.00,WUHU21623XXSP,2013-03-20 11:35:00,
2013-03-20 06:39:00,55.2,34.6,30.29,North,0,2.0,4.0,46,0.00,,,0.00,WUHU21623XXSP,2013-03-20 11:39:00,
2013-03-20 06:40:00,55.2,34.6,30.29,North,353,2.0,4.0,46,0.00,,,0.00,WUHU21623XXSP,2013-03-20 11:40:00,
2013-03-20 06:44:00,55.2,34.6,30.29,North,0,1.0,4.0,46,0.00,,,0.00,WUHU21623XXSP,2013-03-20 11:44:00,
2013-03-20 06:45:00,55.2,34.6,30.29,North,354,2.0,4.0,46,0.00,,,0.00,WUHU21623XXSP,2013-03-20 11:45:00,
2013-03-20 06:49:00,55.2,35.2,30.30,North,0,2.0,4.0,47,0.00,,,0.00,WUHU21623XXSP,2013-03-20 11:49:00,
2013-03-20 06:50:00,55.2,35.2,30.30,North,0,2.0,4.0,47,0.00,,,0.00,WUHU21623XXSP,2013-03-20 11:50:00,
2013-03-20 06:54:00,55.0,35.0,30.30,NNW,337,4.0,4.0,47,0.00,,,0.00,WUHU21623XXSP,2013-03-20 11:54:00,
2013-03-20 06:55:00,55.0,35.0,30.30,NNW,337,3.0,4.0,47,0.00,,,0.00,WUHU21623XXSP,2013-03-20 11:55:00,
2013-03-20 06:59:00,54.9,34.9,30.30,NNW,337,3.0,4.0,47,0.00,,,0.00,WUHU21623XXSP,2013-03-20 11:59:00,
2013-03-20 07:00:00,54.9,34.9,30.30,NNW,337,1.0,4.0,47,0.00,,,0.00,WUHU21623XXSP,2013-03-20 12:00:00,
2013-03-20 07:10:00,54.9,34.9,30.30,North,0,0.0,0.0,47,0.00,,,0.00,WUHU21623XXSP,2013-03-20 12:10:00,
2013-03-20 07:15:00,54.5,34.6,30.32,North,0,2.0,3.0,47,0.00,,,0.00,WUHU21623XXSP,2013-03-20 12:15:00,
2013-03-20 07:16:00,54.5,34.6,30.32,NNE,22,2.0,3.0,47,0.00,,,0.00,WUHU21623XXSP,2013-03-20 12:16:00,
2013-03-20 07:20:00,54.5,34.6,30.32,North,353,3.0,3.0,47,0.00,,,0.00,WUHU21623XXSP,2013-03-20 12:20:00,
2013-03-20 07:21:00,54.5,34.6,30.32,NNW,337,1.0,3.0,47,0.00,,,0.00,WUHU21623XXSP,2013-03-20 12:21:00,
2013-03-20 07:25:00,54.3,34.4,30.32,North,9,3.0,3.0,47,0.00,,,0.00,WUHU21623XXSP,2013-03-20 12:25:00,
2013-03-20 07:26:00,54.3,34.4,30.32,North,0,2.0,3.0,47,0.00,,,0.00,WUHU21623XXSP,2013-03-20 12:26:00,
2013-03-20 07:30:00,54.5,34.6,30.33,NNE,22,2.0,4.0,47,0.00,,,0.00,WUHU21623XXSP,2013-03-20 12:30:00,
2013-03-20 07:31:00,54.5,34.6,30.33,NE,45,2.0,4.0,47,0.00,,,0.00,WUHU21623XXSP,2013-03-20 12:31:00,
2013-03-20 07:35:00,54.5,34.6,30.33,North,3,3.0,5.0,47,0.00,,,0.00,WUHU21623XXSP,2013-03-20 12:35:00,
2013-03-20 07:36:00,54.5,34.6,30.33,North,6,3.0,5.0,47,0.00,,,0.00,WUHU21623XXSP,2013-03-20 12:36:00,
2013-03-20 07:37:00,54.3,34.4,30.33,North,0,3.0,5.0,47,0.00,,,0.00,WUHU21623XXSP,2013-03-20 12:37:00,
2013-03-20 07:40:00,54.3,34.4,30.33,North,7,2.0,5.0,47,0.00,,,0.00,WUHU21623XXSP,2013-03-20 12:40:00,
2013-03-20 07:42:00,54.3,34.4,30.33,North,0,2.0,5.0,47,0.00,,,0.00,WUHU21623XXSP,2013-03-20 12:42:00,
2013-03-20 07:46:00,54.3,34.4,30.33,North,1,3.0,5.0,47,0.00,,,0.00,WUHU21623XXSP,2013-03-20 12:46:00,
2013-03-20 07:47:00,54.3,34.4,30.33,North,0,2.0,5.0,47,0.00,,,0.00,WUHU21623XXSP,2013-03-20 12:47:00,
2013-03-20 07:51:00,54.3,34.4,30.34,NNW,345,2.0,5.0,47,0.00,,,0.00,WUHU21623XXSP,2013-03-20 12:51:00,
2013-03-20 07:52:00,54.3,34.4,30.34,North,2,2.0,4.0,47,0.00,,,0.00,WUHU21623XXSP,2013-03-20 12:52:00,
2013-03-20 07:53:00,54.3,34.4,30.34,NNE,25,2.0,4.0,47,0.00,,,0.00,WUHU21623XXSP,2013-03-20 12:53:00,
2013-03-20 07:57:00,54.1,34.8,30.33,NE,45,5.0,5.0,48,0.00,,,0.00,WUHU21623XXSP,2013-03-20 12:57:00,
2013-03-20 07:58:00,54.1,34.8,30.34,NNE,15,3.0,5.0,48,0.00,,,0.00,WUHU21623XXSP,2013-03-20 12:58:00,
2013-03-20 08:02:00,54.1,34.8,30.34,NNE,15,4.0,6.0,48,0.00,,,0.00,WUHU21623XXSP,2013-03-20 13:02:00,
2013-03-20 08:03:00,54.1,34.8,30.34,North,0,3.0,6.0,48,0.00,,,0.00,WUHU21623XXSP,2013-03-20 13:03:00,
2013-03-20 08:07:00,54.0,34.6,30.34,North,0,3.0,6.0,48,0.00,,,0.00,WUHU21623XXSP,2013-03-20 13:07:00,
2013-03-20 08:08:00,54.0,34.6,30.34,North,0,4.0,6.0,48,0.00,,,0.00,WUHU21623XXSP,2013-03-20 13:08:00,
2013-03-20 08:12:00,53.8,34.5,30.34,NNE,22,3.0,5.0,48,0.00,,,0.00,WUHU21623XXSP,2013-03-20 13:12:00,
2013-03-20 08:13:00,53.8,34.5,30.34,NNE,25,2.0,5.0,48,0.00,,,0.00,WUHU21623XXSP,2013-03-20 13:13:00,
2013-03-20 08:18:00,53.8,34.5,30.34,NNE,30,4.0,7.0,48,0.00,,,0.00,WUHU21623XXSP,2013-03-20 13:18:00,
2013-03-20 08:23:00,53.8,34.5,30.34,North,9,3.0,7.0,48,0.00,,,0.00,WUHU21623XXSP,2013-03-20 13:23:00,
2013-03-20 08:24:00,53.8,34.5,30.34,NNE,22,5.0,7.0,48,0.00,,,0.00,WUHU21623XXSP,2013-03-20 13:24:00,
2013-03-20 08:28:00,53.8,35.0,30.34,NE,45,6.0,6.0,49,0.00,,,0.00,WUHU21623XXSP,2013-03-20 13:28:00,
2013-03-20 08:29:00,53.8,35.0,30.34,NE,45,6.0,9.0,49,0.00,,,0.00,WUHU21623XXSP,2013-03-20 13:29:00,
2013-03-20 08:33:00,54.0,35.2,30.35,NNE,30,4.0,9.0,49,0.00,,,0.00,WUHU21623XXSP,2013-03-20 13:33:00,
2013-03-20 08:34:00,54.0,35.2,30.35,NNE,28,3.0,9.0,49,0.00,,,0.00,WUHU21623XXSP,2013-03-20 13:34:00,
2013-03-20 08:38:00,54.0,35.2,30.35,North,0,3.0,10.0,49,0.00,,,0.00,WUHU21623XXSP,2013-03-20 13:38:00,
2013-03-20 08:39:00,54.0,35.2,30.35,NNE,25,4.0,10.0,49,0.00,,,0.00,WUHU21623XXSP,2013-03-20 13:39:00,
2013-03-20 08:43:00,53.8,35.0,30.35,NNE,22,9.0,10.0,49,0.00,,,0.00,WUHU21623XXSP,2013-03-20 13:43:00,
2013-03-20 08:44:00,54.0,35.2,30.35,NNE,25,6.0,10.0,49,0.00,,,0.00,WUHU21623XXSP,2013-03-20 13:44:00,
2013-03-20 08:48:00,54.0,35.2,30.36,North,0,9.0,10.0,49,0.00,,,0.00,WUHU21623XXSP,2013-03-20 13:48:00,
2013-03-20 08:49:00,54.0,35.2,30.36,NNE,22,7.0,10.0,49,0.00,,,0.00,WUHU21623XXSP,2013-03-20 13:49:00,
2013-03-20 08:53:00,54.0,35.2,30.36,NNE,14,5.0,9.0,49,0.00,,,0.00,WUHU21623XXSP,2013-03-20 13:53:00,
2013-03-20 08:54:00,54.0,35.2,30.36,NNE,20,5.0,10.0,49,0.00,,,0.00,WUHU21623XXSP,2013-03-20 13:54:00,
2013-03-20 08:59:00,53.8,35.0,30.36,NNE,31,3.0,10.0,49,0.00,,,0.00,WUHU21623XXSP,2013-03-20 13:59:00,
2013-03-20 09:00:00,54.0,35.2,30.36,ENE,67,4.0,10.0,49,0.00,,,0.00,WUHU21623XXSP,2013-03-20 14:00:00,
2013-03-20 09:04:00,54.0,35.2,30.36,NNW,337,2.0,10.0,49,0.00,,,0.00,WUHU21623XXSP,2013-03-20 14:04:00,
2013-03-20 09:05:00,54.0,35.2,30.37,NNE,22,4.0,10.0,49,0.00,,,0.00,WUHU21623XXSP,2013-03-20 14:05:00,
2013-03-20 09:09:00,54.0,35.2,30.37,North,7,3.0,10.0,49,0.00,,,0.00,WUHU21623XXSP,2013-03-20 14:09:00,
2013-03-20 09:10:00,54.0,35.2,30.37,NNE,27,3.0,10.0,49,0.00,,,0.00,WUHU21623XXSP,2013-03-20 14:10:00,
2013-03-20 09:14:00,54.1,35.3,30.37,North,9,4.0,7.0,49,0.00,,,0.00,WUHU21623XXSP,2013-03-20 14:14:00,
2013-03-20 09:15:00,54.1,35.3,30.37,NNE,22,4.0,7.0,49,0.00,,,0.00,WUHU21623XXSP,2013-03-20 14:15:00,
2013-03-20 09:19:00,54.1,35.3,30.37,NE,42,3.0,7.0,49,0.00,,,0.00,WUHU21623XXSP,2013-03-20 14:19:00,
2013-03-20 09:20:00,54.1,35.3,30.37,NE,40,2.0,7.0,49,0.00,,,0.00,WUHU21623XXSP,2013-03-20 14:20:00,
2013-03-20 09:25:00,54.3,35.5,30.37,North,0,4.0,9.0,49,0.00,,,0.00,WUHU21623XXSP,2013-03-20 14:25:00,
2013-03-20 09:30:00,54.5,35.1,30.37,NNE,31,5.0,9.0,48,0.00,,,0.00,WUHU21623XXSP,2013-03-20 14:30:00,
2013-03-20 09:35:00,54.7,35.3,30.36,NE,45,6.0,10.0,48,0.00,,,0.00,WUHU21623XXSP,2013-03-20 14:35:00,
2013-03-20 09:40:00,55.0,35.0,30.37,NNE,14,7.0,10.0,47,0.00,,,0.00,WUHU21623XXSP,2013-03-20 14:40:00,
2013-03-20 09:41:00,54.9,34.9,30.37,NNE,22,9.0,10.0,47,0.00,,,0.00,WUHU21623XXSP,2013-03-20 14:41:00,
2013-03-20 09:45:00,55.2,35.2,30.37,North,0,4.0,10.0,47,0.00,,,0.00,WUHU21623XXSP,2013-03-20 14:45:00,
2013-03-20 09:46:00,55.2,35.2,30.37,NNE,22,3.0,10.0,47,0.00,,,0.00,WUHU21623XXSP,2013-03-20 14:46:00,
2013-03-20 09:50:00,55.2,35.2,30.37,North,0,3.0,9.0,47,0.00,,,0.00,WUHU21623XXSP,2013-03-20 14:50:00,
2013-03-20 09:51:00,55.2,34.6,30.37,North,0,3.0,6.0,46,0.00,,,0.00,WUHU21623XXSP,2013-03-20 14:51:00,
2013-03-20 09:55:00,55.6,35.0,30.37,North,352,3.0,6.0,46,0.00,,,0.00,WUHU21623XXSP,2013-03-20 14:55:00,
2013-03-20 09:56:00,55.6,35.0,30.37,North,358,3.0,6.0,46,0.00,,,0.00,WUHU21623XXSP,2013-03-20 14:56:00,
2013-03-20 09:57:00,55.6,35.0,30.37,NNE,22,4.0,6.0,46,0.00,,,0.00,WUHU21623XXSP,2013-03-20 14:57:00,
2013-03-20 10:00:00,55.6,35.0,30.37,NNE,26,4.0,8.0,46,0.00,,,0.00,WUHU21623XXSP,2013-03-20 15:00:00,
2013-03-20 10:02:00,55.6,35.0,30.37,NE,45,5.0,8.0,46,0.00,,,0.00,WUHU21623XXSP,2013-03-20 15:02:00,
2013-03-20 10:05:00,55.8,35.1,30.37,NNE,23,5.0,8.0,46,0.00,,,0.00,WUHU21623XXSP,2013-03-20 15:05:00,
2013-03-20 10:07:00,55.9,35.3,30.37,NNE,22,6.0,8.0,46,0.00,,,0.00,WUHU21623XXSP,2013-03-20 15:07:00,
2013-03-20 10:08:00,55.9,35.3,30.37,NNE,29,5.0,8.0,46,0.00,,,0.00,WUHU21623XXSP,2013-03-20 15:08:00,
2013-03-20 10:10:00,55.9,35.3,30.37,NE,51,4.0,8.0,46,0.00,,,0.00,WUHU21623XXSP,2013-03-20 15:10:00,
2013-03-20 10:12:00,56.1,35.5,30.37,NE,56,3.0,8.0,46,0.00,,,0.00,WUHU21623XXSP,2013-03-20 15:12:00,
2013-03-20 10:14:00,56.3,35.7,30.37,North,0,5.0,8.0,46,0.00,,,0.00,WUHU21623XXSP,2013-03-20 15:14:00,
2013-03-20 10:15:00,56.3,35.7,30.37,NNE,23,4.0,8.0,46,0.00,,,0.00,WUHU21623XXSP,2013-03-20 15:15:00,
2013-03-20 10:17:00,56.5,35.8,30.37,NNE,22,6.0,7.0,46,0.00,,,0.00,WUHU21623XXSP,2013-03-20 15:17:00,
2013-03-20 10:18:00,56.5,35.8,30.37,ENE,67,6.0,7.0,46,0.00,,,0.00,WUHU21623XXSP,2013-03-20 15:18:00,
2013-03-20 10:19:00,56.5,35.8,30.37,East,85,4.0,7.0,46,0.00,,,0.00,WUHU21623XXSP,2013-03-20 15:19:00,
2013-03-20 10:20:00,56.5,35.8,30.38,NE,45,8.0,8.0,46,0.00,,,0.00,WUHU21623XXSP,2013-03-20 15:20:00,
2013-03-20 10:23:00,56.8,36.2,30.38,NNE,28,3.0,8.0,46,0.00,,,0.00,WUHU21623XXSP,2013-03-20 15:23:00,
2013-03-20 10:24:00,56.8,36.2,30.38,North,0,2.0,8.0,46,0.00,,,0.00,WUHU21623XXSP,2013-03-20 15:24:00,
2013-03-20 10:26:00,57.0,36.4,30.38,North,359,3.0,8.0,46,0.00,,,0.00,WUHU21623XXSP,2013-03-20 15:26:00,
2013-03-20 10:28:00,57.0,35.8,30.38,NE,45,7.0,8.0,45,0.00,,,0.00,WUHU21623XXSP,2013-03-20 15:28:00,
2013-03-20 10:30:00,57.0,35.8,30.37,ENE,61,6.0,8.0,45,0.00,,,0.00,WUHU21623XXSP,2013-03-20 15:30:00,
2013-03-20 10:31:00,57.0,35.8,30.37,ENE,61,6.0,8.0,45,0.00,,,0.00,WUHU21623XXSP,2013-03-20 15:31:00,
2013-03-20 10:33:00,57.4,36.0,30.38,ENE,67,5.0,8.0,45,0.00,,,0.00,WUHU21623XXSP,2013-03-20 15:33:00,
2013-03-20 10:35:00,57.4,36.1,30.37,ENE,67,6.0,8.0,45,0.00,,,0.00,WUHU21623XXSP,2013-03-20 15:35:00,
2013-03-20 10:37:00,57.6,36.3,30.37,NE,52,5.0,8.0,45,0.00,,,0.00,WUHU21623XXSP,2013-03-20 15:37:00,
2013-03-20 10:38:00,57.6,36.3,30.37,NNE,22,8.0,8.0,45,0.00,,,0.00,WUHU21623XXSP,2013-03-20 15:38:00,
2013-03-20 10:40:00,57.7,36.4,30.37,NNE,22,5.0,8.0,45,0.00,,,0.00,WUHU21623XXSP,2013-03-20 15:40:00,
2013-03-20 10:42:00,57.9,36.6,30.37,NE,45,5.0,8.0,45,0.00,,,0.00,WUHU21623XXSP,2013-03-20 15:42:00,
2013-03-20 10:43:00,57.9,36.6,30.37,NNE,19,4.0,8.0,45,0.00,,,0.00,WUHU21623XXSP,2013-03-20 15:43:00,
2013-03-20 10:46:00,57.9,36.6,30.37,NE,45,9.0,9.0,45,0.00,,,0.00,WUHU21623XXSP,2013-03-20 15:46:00,
2013-03-20 10:47:00,58.1,36.8,30.37,NNE,22,5.0,9.0,45,0.00,,,0.00,WUHU21623XXSP,2013-03-20 15:47:00,
2013-03-20 10:48:00,58.1,36.8,30.37,NE,39,4.0,9.0,45,0.00,,,0.00,WUHU21623XXSP,2013-03-20 15:48:00,
2013-03-20 10:52:00,58.1,36.8,30.37,NNE,22,5.0,9.0,45,0.00,,,0.00,WUHU21623XXSP,2013-03-20 15:52:00,
2013-03-20 10:53:00,58.3,36.9,30.37,NNE,13,3.0,9.0,45,0.00,,,0.00,WUHU21623XXSP,2013-03-20 15:53:00,
2013-03-20 10:54:00,58.3,36.9,30.37,NW,315,2.0,9.0,45,0.00,,,0.00,WUHU21623XXSP,2013-03-20 15:54:00,
2013-03-20 10:57:00,58.5,36.5,30.37,NW,315,3.0,8.0,44,0.00,,,0.00,WUHU21623XXSP,2013-03-20 15:57:00,
2013-03-20 10:58:00,58.5,36.5,30.37,NNW,341,3.0,8.0,44,0.00,,,0.00,WUHU21623XXSP,2013-03-20 15:58:00,
2013-03-20 10:59:00,58.6,36.7,30.37,NNW,337,5.0,8.0,44,0.00,,,0.00,WUHU21623XXSP,2013-03-20 15:59:00,
2013-03-20 11:02:00,58.8,36.8,30.37,North,353,3.0,5.0,44,0.00,,,0.00,WUHU21623XXSP,2013-03-20 16:02:00,
2013-03-20 11:03:00,58.8,36.8,30.37,NNW,348,3.0,5.0,44,0.00,,,0.00,WUHU21623XXSP,2013-03-20 16:03:00,
2013-03-20 11:04:00,58.8,36.8,30.37,North,351,2.0,5.0,44,0.00,,,0.00,WUHU21623XXSP,2013-03-20 16:04:00,
2013-03-20 11:07:00,58.8,36.8,30.37,NE,45,4.0,5.0,44,0.00,,,0.00,WUHU21623XXSP,2013-03-20 16:07:00,
2013-03-20 11:08:00,58.8,36.8,30.37,NE,44,4.0,5.0,44,0.00,,,0.00,WUHU21623XXSP,2013-03-20 16:08:00,
2013-03-20 11:09:00,58.8,36.8,30.37,NE,46,4.0,5.0,44,0.00,,,0.00,WUHU21623XXSP,2013-03-20 16:09:00,
2013-03-20 11:10:00,58.8,36.8,30.37,NE,51,3.0,5.0,44,0.00,,,0.00,WUHU21623XXSP,2013-03-20 16:10:00,
2013-03-20 11:13:00,58.8,36.8,30.37,North,0,8.0,8.0,44,0.00,,,0.00,WUHU21623XXSP,2013-03-20 16:13:00,
2013-03-20 11:14:00,58.8,36.8,30.37,NNE,22,8.0,9.0,44,0.00,,,0.00,WUHU21623XXSP,2013-03-20 16:14:00,
2013-03-20 11:15:00,58.8,36.8,30.37,NNE,19,6.0,9.0,44,0.00,,,0.00,WUHU21623XXSP,2013-03-20 16:15:00,
2013-03-20 11:18:00,59.2,37.2,30.37,NNE,31,3.0,9.0,44,0.00,,,0.00,WUHU21623XXSP,2013-03-20 16:18:00,
2013-03-20 11:19:00,59.4,37.3,30.37,NNW,346,2.0,9.0,44,0.00,,,0.00,WUHU21623XXSP,2013-03-20 16:19:00,
2013-03-20 11:20:00,59.4,37.3,30.37,North,4,4.0,9.0,44,0.00,,,0.00,WUHU21623XXSP,2013-03-20 16:20:00,
2013-03-20 11:23:00,59.5,36.9,30.37,NE,45,7.0,9.0,43,0.00,,,0.00,WUHU21623XXSP,2013-03-20 16:23:00,
2013-03-20 11:24:00,59.5,36.9,30.37,NNE,31,5.0,8.0,43,0.00,,,0.00,WUHU21623XXSP,2013-03-20 16:24:00,
2013-03-20 11:25:00,59.5,36.9,30.37,NNW,337,6.0,8.0,43,0.00,,,0.00,WUHU21623XXSP,2013-03-20 16:25:00,
2013-03-20 11:29:00,59.7,37.1,30.37,NW,315,3.0,8.0,43,0.00,,,0.00,WUHU21623XXSP,2013-03-20 16:29:00,
2013-03-20 11:30:00,59.7,37.1,30.37,NE,45,6.0,8.0,43,0.00,,,0.00,WUHU21623XXSP,2013-03-20 16:30:00,
2013-03-20 11:34:00,60.1,37.4,30.37,NNE,26,5.0,7.0,43,0.00,,,0.00,WUHU21623XXSP,2013-03-20 16:34:00,
2013-03-20 11:35:00,60.1,37.4,30.37,NE,45,4.0,7.0,43,0.00,,,0.00,WUHU21623XXSP,2013-03-20 16:35:00,
2013-03-20 11:39:00,60.4,37.7,30.37,NNW,335,4.0,8.0,43,0.00,,,0.00,WUHU21623XXSP,2013-03-20 16:39:00,
2013-03-20 11:40:00,60.4,37.1,30.37,North,0,6.0,8.0,42,0.00,,,0.00,WUHU21623XXSP,2013-03-20 16:40:00,
2013-03-20 11:45:00,60.6,37.3,30.37,North,0,4.0,8.0,42,0.00,,,0.00,WUHU21623XXSP,2013-03-20 16:45:00,
2013-03-20 11:50:00,60.6,37.3,30.37,NNE,17,3.0,7.0,42,0.00,,,0.00,WUHU21623XXSP,2013-03-20 16:50:00,
2013-03-20 11:55:00,61.0,37.6,30.37,NE,56,4.0,7.0,42,0.00,,,0.00,WUHU21623XXSP,2013-03-20 16:55:00,
2013-03-20 12:00:00,61.3,37.4,30.36,NW,325,5.0,9.0,41,0.00,,,0.00,WUHU21623XXSP,2013-03-20 17:00:00,
2013-03-20 12:01:00,61.3,37.4,30.36,NNW,332,4.0,9.0,41,0.00,,,0.00,WUHU21623XXSP,2013-03-20 17:01:00,
2013-03-20 12:05:00,61.5,37.5,30.35,NE,45,5.0,9.0,41,0.00,,,0.00,WUHU21623XXSP,2013-03-20 17:05:00,
2013-03-20 12:06:00,61.5,37.5,30.35,NE,45,4.0,9.0,41,0.00,,,0.00,WUHU21623XXSP,2013-03-20 17:06:00,
2013-03-20 12:10:00,61.7,37.7,30.35,NNE,28,5.0,11.0,41,0.00,,,0.00,WUHU21623XXSP,2013-03-20 17:10:00,
2013-03-20 12:11:00,61.7,37.7,30.35,North,0,7.0,11.0,41,0.00,,,0.00,WUHU21623XXSP,2013-03-20 17:11:00,
2013-03-20 12:12:00,61.9,37.9,30.35,NNW,337,5.0,11.0,41,0.00,,,0.00,WUHU21623XXSP,2013-03-20 17:12:00,
2013-03-20 12:15:00,61.9,37.3,30.35,NNE,22,11.0,11.0,40,0.00,,,0.00,WUHU21623XXSP,2013-03-20 17:15:00,
2013-03-20 12:16:00,62.1,37.5,30.35,NNE,18,8.0,11.0,40,0.00,,,0.00,WUHU21623XXSP,2013-03-20 17:16:00,
2013-03-20 12:17:00,62.2,37.6,30.35,NNE,32,9.0,13.0,40,0.00,,,0.00,WUHU21623XXSP,2013-03-20 17:17:00,
2013-03-20 12:21:00,62.2,37.6,30.35,North,0,8.0,13.0,40,0.00,,,0.00,WUHU21623XXSP,2013-03-20 17:21:00,
2013-03-20 12:22:00,62.2,36.9,30.35,NE,34,7.0,13.0,39,0.00,,,0.00,WUHU21623XXSP,2013-03-20 17:22:00,
2013-03-20 12:26:00,62.4,37.1,30.35,NNE,18,6.0,13.0,39,0.00,,,0.00,WUHU21623XXSP,2013-03-20 17:26:00,
2013-03-20 12:27:00,62.4,37.1,30.35,NNE,23,7.0,13.0,39,0.00,,,0.00,WUHU21623XXSP,2013-03-20 17:27:00,
2013-03-20 12:31:00,62.6,36.5,30.35,North,349,5.0,13.0,38,0.00,,,0.00,WUHU21623XXSP,2013-03-20 17:31:00,
2013-03-20 12:32:00,62.8,36.7,30.35,North,9,6.0,13.0,38,0.00,,,0.00,WUHU21623XXSP,2013-03-20 17:32:00,
2013-03-20 12:33:00,62.8,36.7,30.35,North,11,6.0,13.0,38,0.00,,,0.00,WUHU21623XXSP,2013-03-20 17:33:00,
2013-03-20 12:36:00,62.8,36.7,30.35,NNE,28,8.0,13.0,38,0.00,,,0.00,WUHU21623XXSP,2013-03-20 17:36:00,
2013-03-20 12:38:00,63.0,36.8,30.35,North,0,7.0,11.0,38,0.00,,,0.00,WUHU21623XXSP,2013-03-20 17:38:00,
2013-03-20 12:42:00,63.1,35.5,30.35,NNW,344,5.0,11.0,36,0.00,,,0.00,WUHU21623XXSP,2013-03-20 17:42:00,
2013-03-20 12:43:00,63.1,34.8,30.35,NNW,340,6.0,11.0,35,0.00,,,0.00,WUHU21623XXSP,2013-03-20 17:43:00,
2013-03-20 12:47:00,63.1,34.8,30.35,North,349,5.0,10.0,35,0.00,,,0.00,WUHU21623XXSP,2013-03-20 17:47:00,
2013-03-20 12:48:00,63.1,34.8,30.35,NNE,12,6.0,10.0,35,0.00,,,0.00,WUHU21623XXSP,2013-03-20 17:48:00,
2013-03-20 12:52:00,63.5,35.9,30.35,NNE,32,7.0,12.0,36,0.00,,,0.00,WUHU21623XXSP,2013-03-20 17:52:00,
2013-03-20 12:53:00,63.5,35.1,30.35,NNE,26,5.0,12.0,35,0.00,,,0.00,WUHU21623XXSP,2013-03-20 17:53:00,
2013-03-20 12:57:00,63.7,34.6,30.34,North,353,8.0,12.0,34,0.00,,,0.00,WUHU21623XXSP,2013-03-20 17:57:00,
2013-03-20 12:58:00,63.7,34.6,30.34,NNW,347,7.0,12.0,34,0.00,,,0.00,WUHU21623XXSP,2013-03-20 17:58:00,
2013-03-20 13:02:00,64.0,34.2,30.35,NNW,343,6.0,12.0,33,0.00,,,0.00,WUHU21623XXSP,2013-03-20 18:02:00,
2013-03-20 13:03:00,64.0,34.2,30.35,North,9,7.0,12.0,33,0.00,,,0.00,WUHU21623XXSP,2013-03-20 18:03:00,
2013-03-20 13:04:00,64.0,34.2,30.35,North,0,9.0,12.0,33,0.00,,,0.00,WUHU21623XXSP,2013-03-20 18:04:00,
2013-03-20 13:08:00,64.0,33.5,30.35,NW,326,5.0,12.0,32,0.00,,,0.00,WUHU21623XXSP,2013-03-20 18:08:00,
2013-03-20 13:09:00,64.0,34.2,30.35,NNW,337,6.0,12.0,33,0.00,,,0.00,WUHU21623XXSP,2013-03-20 18:09:00,
2013-03-20 13:13:00,64.0,32.8,30.34,North,352,4.0,12.0,31,0.00,,,0.00,WUHU21623XXSP,2013-03-20 18:13:00,
2013-03-20 13:14:00,64.0,32.8,30.34,NW,315,8.0,12.0,31,0.00,,,0.00,WUHU21623XXSP,2013-03-20 18:14:00,
2013-03-20 13:18:00,64.2,32.9,30.34,NE,34,6.0,11.0,31,0.00,,,0.00,WUHU21623XXSP,2013-03-20 18:18:00,
2013-03-20 13:19:00,64.2,32.9,30.34,NE,34,7.0,11.0,31,0.00,,,0.00,WUHU21623XXSP,2013-03-20 18:19:00,
2013-03-20 13:23:00,64.4,33.8,30.34,NE,45,13.0,13.0,32,0.00,,,0.00,WUHU21623XXSP,2013-03-20 18:23:00,
2013-03-20 13:24:00,64.6,34.0,30.34,NE,45,9.0,13.0,32,0.00,,,0.00,WUHU21623XXSP,2013-03-20 18:24:00,
2013-03-20 13:29:00,64.6,34.0,30.34,NE,45,6.0,13.0,32,0.00,,,0.00,WUHU21623XXSP,2013-03-20 18:29:00,
2013-03-20 13:34:00,64.8,33.4,30.33,NNE,22,11.0,21.0,31,0.00,,,0.00,WUHU21623XXSP,2013-03-20 18:34:00,
2013-03-20 13:35:00,64.8,33.4,30.33,NNE,33,7.0,21.0,31,0.00,,,0.00,WUHU21623XXSP,2013-03-20 18:35:00,
2013-03-20 13:39:00,65.1,34.4,30.33,ENE,70,4.0,21.0,32,0.00,,,0.00,WUHU21623XXSP,2013-03-20 18:39:00,
2013-03-20 13:40:00,64.9,34.3,30.33,ESE,112,4.0,12.0,32,0.00,,,0.00,WUHU21623XXSP,2013-03-20 18:40:00,
2013-03-20 13:44:00,65.3,34.6,30.32,East,90,9.0,13.0,32,0.00,,,0.00,WUHU21623XXSP,2013-03-20 18:44:00,
2013-03-20 13:45:00,65.3,34.6,30.32,ENE,65,9.0,13.0,32,0.00,,,0.00,WUHU21623XXSP,2013-03-20 18:45:00,
2013-03-20 13:49:00,65.7,34.9,30.32,NNE,31,8.0,13.0,32,0.00,,,0.00,WUHU21623XXSP,2013-03-20 18:49:00,
2013-03-20 13:50:00,65.5,34.8,30.32,NE,45,10.0,13.0,32,0.00,,,0.00,WUHU21623XXSP,2013-03-20 18:50:00,
2013-03-20 13:54:00,65.8,35.1,30.31,ENE,72,10.0,13.0,32,0.00,,,0.00,WUHU21623XXSP,2013-03-20 18:54:00,
2013-03-20 13:55:00,65.8,35.1,30.31,ENE,74,10.0,13.0,32,0.00,,,0.00,WUHU21623XXSP,2013-03-20 18:55:00,
2013-03-20 13:59:00,66.0,35.3,30.31,NE,45,9.0,13.0,32,0.00,,,0.00,WUHU21623XXSP,2013-03-20 18:59:00,
2013-03-20 14:00:00,66.0,35.3,30.31,NNE,30,7.0,13.0,32,0.00,,,0.00,WUHU21623XXSP,2013-03-20 19:00:00,
2013-03-20 14:01:00,66.0,36.0,30.31,ENE,67,10.0,13.0,33,0.00,,,0.00,WUHU21623XXSP,2013-03-20 19:01:00,
2013-03-20 14:05:00,66.0,36.0,30.31,ENE,67,5.0,12.0,33,0.00,,,0.00,WUHU21623XXSP,2013-03-20 19:05:00,
2013-03-20 14:06:00,66.0,36.0,30.31,NNE,23,3.0,12.0,33,0.00,,,0.00,WUHU21623XXSP,2013-03-20 19:06:00,
2013-03-20 14:07:00,66.2,35.4,30.30,North,0,6.0,12.0,32,0.00,,,0.00,WUHU21623XXSP,2013-03-20 19:07:00,
2013-03-20 14:10:00,66.4,35.6,30.30,NNE,22,7.0,12.0,32,0.00,,,0.00,WUHU21623XXSP,2013-03-20 19:10:00,
2013-03-20 14:11:00,66.4,35.6,30.30,North,0,7.0,12.0,32,0.00,,,0.00,WUHU21623XXSP,2013-03-20 19:11:00,
2013-03-20 14:12:00,66.4,35.6,30.30,NNE,22,7.0,12.0,32,0.00,,,0.00,WUHU21623XXSP,2013-03-20 19:12:00,
2013-03-20 14:15:00,66.4,34.8,30.30,NNW,338,6.0,12.0,31,0.00,,,0.00,WUHU21623XXSP,2013-03-20 19:15:00,
2013-03-20 14:16:00,66.2,34.7,30.30,NNW,337,10.0,12.0,31,0.00,,,0.00,WUHU21623XXSP,2013-03-20 19:16:00,
2013-03-20 14:17:00,66.0,34.5,30.30,NNW,341,7.0,12.0,31,0.00,,,0.00,WUHU21623XXSP,2013-03-20 19:17:00,
2013-03-20 14:20:00,66.0,34.5,30.30,NNE,27,6.0,12.0,31,0.00,,,0.00,WUHU21623XXSP,2013-03-20 19:20:00,
2013-03-20 14:21:00,66.0,35.3,30.30,NE,37,5.0,12.0,32,0.00,,,0.00,WUHU21623XXSP,2013-03-20 19:21:00,
2013-03-20 14:22:00,66.0,35.3,30.29,North,0,5.0,10.0,32,0.00,,,0.00,WUHU21623XXSP,2013-03-20 19:22:00,
2013-03-20 14:25:00,66.0,35.3,30.29,NW,309,3.0,10.0,32,0.00,,,0.00,WUHU21623XXSP,2013-03-20 19:25:00,
2013-03-20 14:27:00,66.2,35.4,30.29,WNW,292,4.0,9.0,32,0.00,,,0.00,WUHU21623XXSP,2013-03-20 19:27:00,
2013-03-20 14:28:00,66.0,35.3,30.29,NW,315,5.0,9.0,32,0.00,,,0.00,WUHU21623XXSP,2013-03-20 19:28:00,
2013-03-20 14:30:00,66.0,34.5,30.28,NE,45,9.0,9.0,31,0.00,,,0.00,WUHU21623XXSP,2013-03-20 19:30:00,
2013-03-20 14:32:00,66.0,35.3,30.28,NNE,19,6.0,9.0,32,0.00,,,0.00,WUHU21623XXSP,2013-03-20 19:32:00,
2013-03-20 14:33:00,66.0,35.3,30.28,North,0,6.0,9.0,32,0.00,,,0.00,WUHU21623XXSP,2013-03-20 19:33:00,
2013-03-20 14:35:00,66.2,35.4,30.28,NE,46,8.0,17.0,32,0.00,,,0.00,WUHU21623XXSP,2013-03-20 19:35:00,
2013-03-20 14:37:00,66.4,35.6,30.29,North,0,5.0,17.0,32,0.00,,,0.00,WUHU21623XXSP,2013-03-20 19:37:00,
2013-03-20 14:38:00,66.4,35.6,30.29,North,0,6.0,17.0,32,0.00,,,0.00,WUHU21623XXSP,2013-03-20 19:38:00,
2013-03-20 14:40:00,66.4,35.6,30.28,NNE,22,5.0,17.0,32,0.00,,,0.00,WUHU21623XXSP,2013-03-20 19:40:00,
2013-03-20 14:43:00,66.4,35.6,30.28,NW,320,3.0,17.0,32,0.00,,,0.00,WUHU21623XXSP,2013-03-20 19:43:00,
2013-03-20 14:46:00,66.4,35.6,30.28,NNE,16,4.0,10.0,32,0.00,,,0.00,WUHU21623XXSP,2013-03-20 19:46:00,
2013-03-20 14:48:00,66.6,35.0,30.28,NE,45,12.0,17.0,31,0.00,,,0.00,WUHU21623XXSP,2013-03-20 19:48:00,
2013-03-20 14:51:00,66.6,35.7,30.28,NE,50,8.0,17.0,32,0.00,,,0.00,WUHU21623XXSP,2013-03-20 19:51:00,
2013-03-20 14:53:00,66.7,35.9,30.27,NE,45,10.0,17.0,32,0.00,,,0.00,WUHU21623XXSP,2013-03-20 19:53:00,
2013-03-20 14:56:00,66.7,35.9,30.27,NE,36,7.0,17.0,32,0.00,,,0.00,WUHU21623XXSP,2013-03-20 19:56:00,
2013-03-20 14:58:00,66.9,35.3,30.27,NNW,339,5.0,13.0,31,0.00,,,0.00,WUHU21623XXSP,2013-03-20 19:58:00,
2013-03-20 15:01:00,66.9,35.3,30.27,North,351,4.0,13.0,31,0.00,,,0.00,WUHU21623XXSP,2013-03-20 20:01:00,
2013-03-20 15:02:00,66.7,35.1,30.26,North,0,7.0,13.0,31,0.00,,,0.00,WUHU21623XXSP,2013-03-20 20:02:00,
2013-03-20 15:03:00,66.7,35.1,30.27,North,2,4.0,12.0,31,0.00,,,0.00,WUHU21623XXSP,2013-03-20 20:03:00,
2013-03-20 15:07:00,66.7,35.1,30.26,NNE,33,6.0,10.0,31,0.00,,,0.00,WUHU21623XXSP,2013-03-20 20:07:00,
2013-03-20 15:08:00,66.7,35.1,30.26,North,358,7.0,15.0,31,0.00,,,0.00,WUHU21623XXSP,2013-03-20 20:08:00,
2013-03-20 15:12:00,66.7,35.1,30.26,NNE,22,10.0,15.0,31,0.00,,,0.00,WUHU21623XXSP,2013-03-20 20:12:00,
2013-03-20 15:13:00,66.7,35.1,30.26,NE,45,6.0,15.0,31,0.00,,,0.00,WUHU21623XXSP,2013-03-20 20:13:00,
2013-03-20 15:14:00,66.9,35.3,30.26,NE,54,5.0,15.0,31,0.00,,,0.00,WUHU21623XXSP,2013-03-20 20:14:00,
2013-03-20 15:17:00,66.9,35.3,30.25,NE,38,3.0,12.0,31,0.00,,,0.00,WUHU21623XXSP,2013-03-20 20:17:00,
2013-03-20 15:18:00,66.9,35.3,30.25,ENE,67,6.0,12.0,31,0.00,,,0.00,WUHU21623XXSP,2013-03-20 20:18:00,
2013-03-20 15:19:00,66.9,35.3,30.25,NNE,18,3.0,12.0,31,0.00,,,0.00,WUHU21623XXSP,2013-03-20 20:19:00,
2013-03-20 15:22:00,67.1,35.4,30.25,NE,45,9.0,10.0,31,0.00,,,0.00,WUHU21623XXSP,2013-03-20 20:22:00,
2013-03-20 15:23:00,67.1,35.4,30.25,NNE,22,14.0,14.0,31,0.00,,,0.00,WUHU21623XXSP,2013-03-20 20:23:00,
2013-03-20 15:24:00,67.3,35.6,30.25,NE,45,11.0,14.0,31,0.00,,,0.00,WUHU21623XXSP,2013-03-20 20:24:00,
2013-03-20 15:27:00,67.3,35.6,30.25,NE,35,9.0,15.0,31,0.00,,,0.00,WUHU21623XXSP,2013-03-20 20:27:00,
2013-03-20 15:28:00,67.3,35.6,30.25,ENE,67,11.0,15.0,31,0.00,,,0.00,WUHU21623XXSP,2013-03-20 20:28:00,
2013-03-20 15:29:00,67.3,35.6,30.25,NE,47,7.0,15.0,31,0.00,,,0.00,WUHU21623XXSP,2013-03-20 20:29:00,
2013-03-20 15:32:00,67.3,36.3,30.25,ENE,67,9.0,15.0,32,0.00,,,0.00,WUHU21623XXSP,2013-03-20 20:32:00,
2013-03-20 15:33:00,67.6,36.6,30.25,NNE,22,8.0,15.0,32,0.00,,,0.00,WUHU21623XXSP,2013-03-20 20:33:00,
2013-03-20 15:34:00,67.6,36.6,30.25,North,2,5.0,15.0,32,0.00,,,0.00,WUHU21623XXSP,2013-03-20 20:34:00,
2013-03-20 15:37:00,67.6,36.6,30.25,NNE,19,5.0,11.0,32,0.00,,,0.00,WUHU21623XXSP,2013-03-20 20:37:00,
2013-03-20 15:39:00,67.6,35.9,30.24,NNE,29,4.0,11.0,31,0.00,,,0.00,WUHU21623XXSP,2013-03-20 20:39:00,
2013-03-20 15:42:00,67.6,35.9,30.24,NNW,342,5.0,8.0,31,0.00,,,0.00,WUHU21623XXSP,2013-03-20 20:42:00,
2013-03-20 15:44:00,67.6,35.9,30.24,NNE,22,7.0,9.0,31,0.00,,,0.00,WUHU21623XXSP,2013-03-20 20:44:00,
2013-03-20 15:47:00,67.6,35.9,30.24,NNE,22,4.0,9.0,31,0.00,,,0.00,WUHU21623XXSP,2013-03-20 20:47:00,
2013-03-20 15:48:00,67.6,35.9,30.24,NNE,22,8.0,9.0,31,0.00,,,0.00,WUHU21623XXSP,2013-03-20 20:48:00,
2013-03-20 15:49:00,67.6,35.9,30.24,North,0,9.0,11.0,31,0.00,,,0.00,WUHU21623XXSP,2013-03-20 20:49:00,
2013-03-20 15:53:00,67.6,35.9,30.24,NW,315,3.0,11.0,31,0.00,,,0.00,WUHU21623XXSP,2013-03-20 20:53:00,
2013-03-20 15:54:00,67.6,35.9,30.24,NNW,347,4.0,11.0,31,0.00,,,0.00,WUHU21623XXSP,2013-03-20 20:54:00,
2013-03-20 15:58:00,67.6,35.9,30.24,NE,45,3.0,11.0,31,0.00,,,0.00,WUHU21623XXSP,2013-03-20 20:58:00,
2013-03-20 15:59:00,67.6,35.9,30.24,NNE,22,4.0,7.0,31,0.00,,,0.00,WUHU21623XXSP,2013-03-20 20:59:00,
2013-03-20 16:03:00,67.6,35.9,30.24,NE,45,8.0,12.0,31,0.00,,,0.00,WUHU21623XXSP,2013-03-20 21:03:00,
2013-03-20 16:04:00,67.6,35.9,30.24,ESE,112,8.0,12.0,31,0.00,,,0.00,WUHU21623XXSP,2013-03-20 21:04:00,
2013-03-20 16:08:00,67.8,36.0,30.24,NE,41,5.0,12.0,31,0.00,,,0.00,WUHU21623XXSP,2013-03-20 21:08:00,
2013-03-20 16:09:00,67.8,36.0,30.24,NE,43,4.0,12.0,31,0.00,,,0.00,WUHU21623XXSP,2013-03-20 21:09:00,
2013-03-20 16:10:00,67.8,36.0,30.24,NE,41,4.0,12.0,31,0.00,,,0.00,WUHU21623XXSP,2013-03-20 21:10:00,
2013-03-20 16:13:00,67.8,36.0,30.23,North,0,8.0,11.0,31,0.00,,,0.00,WUHU21623XXSP,2013-03-20 21:13:00,
2013-03-20 16:14:00,67.8,36.0,30.23,NNE,20,7.0,11.0,31,0.00,,,0.00,WUHU21623XXSP,2013-03-20 21:14:00,
2013-03-20 16:15:00,67.8,36.0,30.23,NE,53,5.0,11.0,31,0.00,,,0.00,WUHU21623XXSP,2013-03-20 21:15:00,
2013-03-20 16:19:00,68.2,36.3,30.23,ESE,112,5.0,11.0,31,0.00,,,0.00,WUHU21623XXSP,2013-03-20 21:19:00,
2013-03-20 16:20:00,68.2,36.3,30.23,North,0,10.0,11.0,31,0.00,,,0.00,WUHU21623XXSP,2013-03-20 21:20:00,
2013-03-20 16:24:00,68.4,36.5,30.23,NNE,31,7.0,11.0,31,0.00,,,0.00,WUHU21623XXSP,2013-03-20 21:24:00,
2013-03-20 16:25:00,68.4,36.5,30.23,NNE,18,4.0,11.0,31,0.00,,,0.00,WUHU21623XXSP,2013-03-20 21:25:00,
2013-03-20 16:29:00,68.4,36.5,30.23,ENE,64,6.0,11.0,31,0.00,,,0.00,WUHU21623XXSP,2013-03-20 21:29:00,
2013-03-20 16:30:00,68.5,36.6,30.23,NNE,22,9.0,13.0,31,0.00,,,0.00,WUHU21623XXSP,2013-03-20 21:30:00,
2013-03-20 16:34:00,68.5,35.9,30.23,NNE,22,7.0,13.0,30,0.00,,,0.00,WUHU21623XXSP,2013-03-20 21:34:00,
2013-03-20 16:35:00,68.5,35.9,30.23,NNE,22,6.0,13.0,30,0.00,,,0.00,WUHU21623XXSP,2013-03-20 21:35:00,
2013-03-20 16:39:00,68.5,36.6,30.22,North,9,3.0,13.0,31,0.00,,,0.00,WUHU21623XXSP,2013-03-20 21:39:00,
2013-03-20 16:40:00,68.4,36.5,30.22,SW,223,3.0,11.0,31,0.00,,,0.00,WUHU21623XXSP,2013-03-20 21:40:00,
2013-03-20 16:41:00,68.5,36.6,30.22,South,180,4.0,11.0,31,0.00,,,0.00,WUHU21623XXSP,2013-03-20 21:41:00,
2013-03-20 16:44:00,68.5,36.6,30.22,WNW,292,2.0,7.0,31,0.00,,,0.00,WUHU21623XXSP,2013-03-20 21:44:00,
2013-03-20 16:45:00,68.5,36.6,30.22,East,90,8.0,8.0,31,0.00,,,0.00,WUHU21623XXSP,2013-03-20 21:45:00,
2013-03-20 16:46:00,68.5,36.6,30.22,NE,54,4.0,9.0,31,0.00,,,0.00,WUHU21623XXSP,2013-03-20 21:46:00,
2013-03-20 16:49:00,68.7,36.8,30.22,NNE,24,7.0,10.0,31,0.00,,,0.00,WUHU21623XXSP,2013-03-20 21:49:00,
2013-03-20 16:50:00,68.7,36.8,30.22,NNE,29,8.0,10.0,31,0.00,,,0.00,WUHU21623XXSP,2013-03-20 21:50:00,
2013-03-20 16:51:00,68.7,36.1,30.22,North,8,8.0,10.0,30,0.00,,,0.00,WUHU21623XXSP,2013-03-20 21:51:00,
2013-03-20 16:54:00,68.7,36.1,30.22,NE,34,4.0,10.0,30,0.00,,,0.00,WUHU21623XXSP,2013-03-20 21:54:00,
2013-03-20 16:55:00,68.7,36.1,30.22,ENE,67,7.0,10.0,30,0.00,,,0.00,WUHU21623XXSP,2013-03-20 21:55:00,
2013-03-20 16:56:00,68.7,36.1,30.22,ENE,67,9.0,10.0,30,0.00,,,0.00,WUHU21623XXSP,2013-03-20 21:56:00,
2013-03-20 16:57:00,68.7,36.1,30.22,ENE,61,7.0,10.0,30,0.00,,,0.00,WUHU21623XXSP,2013-03-20 21:57:00,
2013-03-20 16:59:00,68.7,36.8,30.22,ESE,111,7.0,10.0,31,0.00,,,0.00,WUHU21623XXSP,2013-03-20 21:59:00,
2013-03-20 17:01:00,68.7,36.8,30.22,ENE,67,5.0,10.0,31,0.00,,,0.00,WUHU21623XXSP,2013-03-20 22:01:00,
2013-03-20 17:02:00,68.9,37.0,30.22,East,82,5.0,10.0,31,0.00,,,0.00,WUHU21623XXSP,2013-03-20 22:02:00,
2013-03-20 17:04:00,69.1,37.1,30.22,ESE,111,4.0,10.0,31,0.00,,,0.00,WUHU21623XXSP,2013-03-20 22:04:00,
2013-03-20 17:06:00,69.1,37.1,30.22,East,90,7.0,9.0,31,0.00,,,0.00,WUHU21623XXSP,2013-03-20 22:06:00,
2013-03-20 17:07:00,69.1,37.1,30.22,ESE,121,6.0,9.0,31,0.00,,,0.00,WUHU21623XXSP,2013-03-20 22:07:00,
2013-03-20 17:10:00,69.3,37.3,30.21,East,85,5.0,9.0,31,0.00,,,0.00,WUHU21623XXSP,2013-03-20 22:10:00,
2013-03-20 17:11:00,69.4,37.5,30.22,ENE,72,4.0,9.0,31,0.00,,,0.00,WUHU21623XXSP,2013-03-20 22:11:00,
2013-03-20 17:12:00,69.4,37.5,30.21,North,6,2.0,9.0,31,0.00,,,0.00,WUHU21623XXSP,2013-03-20 22:12:00,
2013-03-20 17:15:00,69.4,37.5,30.21,ESE,112,6.0,9.0,31,0.00,,,0.00,WUHU21623XXSP,2013-03-20 22:15:00,
2013-03-20 17:16:00,69.4,37.5,30.21,ENE,67,6.0,8.0,31,0.00,,,0.00,WUHU21623XXSP,2013-03-20 22:16:00,
2013-03-20 17:17:00,69.3,37.5,30.21,NE,45,8.0,9.0,31,0.00,,,0.00,WUHU21623XXSP,2013-03-20 22:17:00,
2013-03-20 17:20:00,69.3,37.3,30.21,NNE,24,6.0,11.0,31,0.00,,,0.00,WUHU21623XXSP,2013-03-20 22:20:00,
2013-03-20 17:22:00,69.1,37.1,30.21,NNE,30,6.0,11.0,31,0.00,,,0.00,WUHU21623XXSP,2013-03-20 22:22:00,
2013-03-20 17:25:00,69.1,37.1,30.21,NNE,27,6.0,11.0,31,0.00,,,0.00,WUHU21623XXSP,2013-03-20 22:25:00,
2013-03-20 17:27:00,68.9,37.0,30.21,NNE,22,5.0,11.0,31,0.00,,,0.00,WUHU21623XXSP,2013-03-20 22:27:00,
2013-03-20 17:28:00,68.9,37.0,30.21,NNE,13,4.0,11.0,31,0.00,,,0.00,WUHU21623XXSP,2013-03-20 22:28:00,
2013-03-20 17:30:00,68.9,36.2,30.20,NNE,21,3.0,10.0,30,0.00,,,0.00,WUHU21623XXSP,2013-03-20 22:30:00,
2013-03-20 17:32:00,68.7,36.2,30.20,North,9,3.0,10.0,30,0.00,,,0.00,WUHU21623XXSP,2013-03-20 22:32:00,
2013-03-20 17:33:00,68.9,36.2,30.20,North,8,3.0,10.0,30,0.00,,,0.00,WUHU21623XXSP,2013-03-20 22:33:00,
2013-03-20 17:35:00,68.7,36.8,30.20,NNE,22,2.0,6.0,31,0.00,,,0.00,WUHU21623XXSP,2013-03-20 22:35:00,
2013-03-20 17:37:00,68.9,37.0,30.20,NE,43,2.0,6.0,31,0.00,,,0.00,WUHU21623XXSP,2013-03-20 22:37:00,
2013-03-20 17:38:00,68.9,36.2,30.20,NE,55,3.0,6.0,30,0.00,,,0.00,WUHU21623XXSP,2013-03-20 22:38:00,
2013-03-20 17:40:00,68.9,37.0,30.20,ESE,112,6.0,7.0,31,0.00,,,0.00,WUHU21623XXSP,2013-03-20 22:40:00,
2013-03-20 17:42:00,68.9,37.0,30.20,ESE,112,7.0,7.0,31,0.00,,,0.00,WUHU21623XXSP,2013-03-20 22:42:00,
2013-03-20 17:43:00,69.1,37.1,30.20,East,81,5.0,7.0,31,0.00,,,0.00,WUHU21623XXSP,2013-03-20 22:43:00,
2013-03-20 17:45:00,69.1,37.1,30.20,East,90,7.0,7.0,31,0.00,,,0.00,WUHU21623XXSP,2013-03-20 22:45:00,
2013-03-20 17:47:00,69.1,37.1,30.20,NE,47,4.0,7.0,31,0.00,,,0.00,WUHU21623XXSP,2013-03-20 22:47:00,
2013-03-20 17:48:00,69.3,37.3,30.20,ENE,67,4.0,7.0,31,0.00,,,0.00,WUHU21623XXSP,2013-03-20 22:48:00,
2013-03-20 17:49:00,69.1,37.1,30.20,ENE,73,4.0,7.0,31,0.00,,,0.00,WUHU21623XXSP,2013-03-20 22:49:00,
2013-03-20 17:50:00,69.3,37.3,30.20,East,90,7.0,12.0,31,0.00,,,0.00,WUHU21623XXSP,2013-03-20 22:50:00,
2013-03-20 17:52:00,69.4,37.5,30.20,East,87,8.0,12.0,31,0.00,,,0.00,WUHU21623XXSP,2013-03-20 22:52:00,
2013-03-20 17:53:00,69.4,37.5,30.20,East,84,8.0,12.0,31,0.00,,,0.00,WUHU21623XXSP,2013-03-20 22:53:00,
2013-03-20 17:54:00,69.4,37.5,30.20,ENE,67,8.0,12.0,31,0.00,,,0.00,WUHU21623XXSP,2013-03-20 22:54:00,
2013-03-20 17:55:00,69.4,37.5,30.20,ENE,67,8.0,12.0,31,0.00,,,0.00,WUHU21623XXSP,2013-03-20 22:55:00,
2013-03-20 17:57:00,69.4,37.5,30.20,ENE,65,5.0,12.0,31,0.00,,,0.00,WUHU21623XXSP,2013-03-20 22:57:00,
2013-03-20 17:58:00,69.4,37.5,30.20,NNE,22,5.0,12.0,31,0.00,,,0.00,WUHU21623XXSP,2013-03-20 22:58:00,
2013-03-20 17:59:00,69.4,37.5,30.20,NE,43,4.0,12.0,31,0.00,,,0.00,WUHU21623XXSP,2013-03-20 22:59:00,
2013-03-20 18:00:00,69.4,37.5,30.20,NE,45,6.0,10.0,31,0.00,,,0.00,WUHU21623XXSP,2013-03-20 23:00:00,
2013-03-20 18:02:00,69.4,37.5,30.20,NE,41,5.0,10.0,31,0.00,,,0.00,WUHU21623XXSP,2013-03-20 23:02:00,
2013-03-20 18:04:00,69.4,37.5,30.20,East,90,5.0,10.0,31,0.00,,,0.00,WUHU21623XXSP,2013-03-20 23:04:00,
2013-03-20 18:05:00,69.4,37.5,30.20,NNE,22,6.0,10.0,31,0.00,,,0.00,WUHU21623XXSP,2013-03-20 23:05:00,
2013-03-20 18:08:00,69.4,37.5,30.20,NE,56,5.0,8.0,31,0.00,,,0.00,WUHU21623XXSP,2013-03-20 23:08:00,
2013-03-20 18:09:00,69.4,37.5,30.20,NE,45,6.0,8.0,31,0.00,,,0.00,WUHU21623XXSP,2013-03-20 23:09:00,
2013-03-20 18:11:00,69.4,37.5,30.19,ENE,67,7.0,8.0,31,0.00,,,0.00,WUHU21623XXSP,2013-03-20 23:11:00,
2013-03-20 18:13:00,69.4,37.5,30.19,ENE,67,7.0,8.0,31,0.00,,,0.00,WUHU21623XXSP,2013-03-20 23:13:00,
2013-03-20 18:14:00,69.4,37.5,30.19,ENE,61,6.0,8.0,31,0.00,,,0.00,WUHU21623XXSP,2013-03-20 23:14:00,
2013-03-20 18:16:00,69.6,37.6,30.19,ENE,67,6.0,8.0,31,0.00,,,0.00,WUHU21623XXSP,2013-03-20 23:16:00,
2013-03-20 18:18:00,69.6,37.6,30.19,ENE,67,7.0,8.0,31,0.00,,,0.00,WUHU21623XXSP,2013-03-20 23:18:00,
2013-03-20 18:19:00,69.6,37.6,30.19,ENE,75,4.0,8.0,31,0.00,,,0.00,WUHU21623XXSP,2013-03-20 23:19:00,
2013-03-20 18:22:00,69.6,37.6,30.19,ENE,67,7.0,10.0,31,0.00,,,0.00,WUHU21623XXSP,2013-03-20 23:22:00,
2013-03-20 18:23:00,69.8,37.8,30.19,ENE,74,7.0,10.0,31,0.00,,,0.00,WUHU21623XXSP,2013-03-20 23:23:00,
2013-03-20 18:24:00,69.8,37.8,30.19,NE,45,7.0,10.0,31,0.00,,,0.00,WUHU21623XXSP,2013-03-20 23:24:00,
2013-03-20 18:28:00,70.0,37.9,30.19,ENE,66,3.0,10.0,31,0.00,,,0.00,WUHU21623XXSP,2013-03-20 23:28:00,
2013-03-20 18:29:00,70.0,37.9,30.19,NE,45,8.0,10.0,31,0.00,,,0.00,WUHU21623XXSP,2013-03-20 23:29:00,
2013-03-20 18:33:00,70.0,37.9,30.19,North,0,3.0,10.0,31,0.00,,,0.00,WUHU21623XXSP,2013-03-20 23:33:00,
2013-03-20 18:34:00,70.2,38.1,30.19,NNW,337,4.0,10.0,31,0.00,,,0.00,WUHU21623XXSP,2013-03-20 23:34:00,
2013-03-20 18:35:00,70.2,38.1,30.18,NE,45,6.0,10.0,31,0.00,,,0.00,WUHU21623XXSP,2013-03-20 23:35:00,
2013-03-20 18:38:00,70.0,37.9,30.18,NE,40,2.0,10.0,31,0.00,,,0.00,WUHU21623XXSP,2013-03-20 23:38:00,
2013-03-20 18:40:00,70.0,37.9,30.18,ENE,67,5.0,7.0,31,0.00,,,0.00,WUHU21623XXSP,2013-03-20 23:40:00,
2013-03-20 18:43:00,70.0,37.9,30.18,ESE,112,5.0,6.0,31,0.00,,,0.00,WUHU21623XXSP,2013-03-20 23:43:00,
2013-03-20 18:44:00,70.0,37.9,30.18,ENE,73,4.0,6.0,31,0.00,,,0.00,WUHU21623XXSP,2013-03-20 23:44:00,
2013-03-20 18:45:00,70.0,37.9,30.18,ENE,67,4.0,6.0,31,0.00,,,0.00,WUHU21623XXSP,2013-03-20 23:45:00,
2013-03-20 18:46:00,70.2,38.1,30.18,East,80,5.0,6.0,31,0.00,,,0.00,WUHU21623XXSP,2013-03-20 23:46:00,
2013-03-20 18:48:00,70.0,37.9,30.18,ENE,63,5.0,6.0,31,0.00,,,0.00,WUHU21623XXSP,2013-03-20 23:48:00,
2013-03-20 18:49:00,70.0,37.9,30.18,ENE,67,6.0,6.0,31,0.00,,,0.00,WUHU21623XXSP,2013-03-20 23:49:00,
2013-03-20 18:50:00,70.0,37.9,30.17,ENE,64,4.0,6.0,31,0.00,,,0.00,WUHU21623XXSP,2013-03-20 23:50:00,
2013-03-20 18:51:00,70.0,37.9,30.17,ENE,69,4.0,6.0,31,0.00,,,0.00,WUHU21623XXSP,2013-03-20 23:51:00,
2013-03-20 18:54:00,70.0,37.9,30.17,East,90,4.0,7.0,31,0.00,,,0.00,WUHU21623XXSP,2013-03-20 23:54:00,
2013-03-20 18:55:00,70.0,37.9,30.17,East,83,5.0,7.0,31,0.00,,,0.00,WUHU21623XXSP,2013-03-20 23:55:00,
2013-03-20 18:56:00,70.0,37.9,30.17,East,90,4.0,7.0,31,0.00,,,0.00,WUHU21623XXSP,2013-03-20 23:56:00,
2013-03-20 18:59:00,70.0,37.9,30.17,ESE,112,1.0,7.0,31,0.00,,,0.00,WUHU21623XXSP,2013-03-20 23:59:00,
2013-03-20 19:00:00,70.0,37.9,30.17,NE,50,3.0,7.0,31,0.00,,,0.00,WUHU21623XXSP,2013-03-21 00:00:00,
2013-03-20 19:02:00,70.0,37.9,30.17,ENE,57,4.0,7.0,31,0.00,,,0.00,WUHU21623XXSP,2013-03-21 00:02:00,
2013-03-20 19:04:00,70.0,37.9,30.17,NE,55,2.0,6.0,31,0.00,,,0.00,WUHU21623XXSP,2013-03-21 00:04:00,
2013-03-20 19:05:00,70.0,37.9,30.17,ENE,67,3.0,6.0,31,0.00,,,0.00,WUHU21623XXSP,2013-03-21 00:05:00,
2013-03-20 19:07:00,70.0,37.9,30.17,NNE,22,3.0,6.0,31,0.00,,,0.00,WUHU21623XXSP,2013-03-21 00:07:00,
2013-03-20 19:09:00,70.0,37.9,30.17,East,90,4.0,6.0,31,0.00,,,0.00,WUHU21623XXSP,2013-03-21 00:09:00,
2013-03-20 19:10:00,70.0,37.9,30.17,ENE,67,7.0,7.0,31,0.00,,,0.00,WUHU21623XXSP,2013-03-21 00:10:00,
2013-03-20 19:12:00,69.8,37.8,30.17,East,79,3.0,7.0,31,0.00,,,0.00,WUHU21623XXSP,2013-03-21 00:12:00,
2013-03-20 19:14:00,70.0,38.7,30.17,ENE,67,4.0,7.0,32,0.00,,,0.00,WUHU21623XXSP,2013-03-21 00:14:00,
2013-03-20 19:15:00,69.8,38.5,30.17,East,80,3.0,7.0,32,0.00,,,0.00,WUHU21623XXSP,2013-03-21 00:15:00,
2013-03-20 19:17:00,69.6,38.4,30.17,ENE,67,6.0,8.0,32,0.00,,,0.00,WUHU21623XXSP,2013-03-21 00:17:00,
2013-03-20 19:19:00,69.6,38.4,30.17,East,80,4.0,8.0,32,0.00,,,0.00,WUHU21623XXSP,2013-03-21 00:19:00,
2013-03-20 19:20:00,69.6,38.4,30.17,ENE,73,3.0,8.0,32,0.00,,,0.00,WUHU21623XXSP,2013-03-21 00:20:00,
2013-03-20 19:22:00,69.6,38.4,30.17,ENE,78,3.0,8.0,32,0.00,,,0.00,WUHU21623XXSP,2013-03-21 00:22:00,
2013-03-20 19:24:00,69.6,38.4,30.17,East,79,4.0,8.0,32,0.00,,,0.00,WUHU21623XXSP,2013-03-21 00:24:00,
2013-03-20 19:25:00,69.4,38.2,30.17,ENE,67,3.0,8.0,32,0.00,,,0.00,WUHU21623XXSP,2013-03-21 00:25:00,
2013-03-20 19:27:00,69.4,38.2,30.17,ENE,67,5.0,7.0,32,0.00,,,0.00,WUHU21623XXSP,2013-03-21 00:27:00,
2013-03-20 19:29:00,69.4,38.2,30.17,ENE,74,3.0,6.0,32,0.00,,,0.00,WUHU21623XXSP,2013-03-21 00:29:00,
2013-03-20 19:30:00,69.4,38.2,30.17,NE,45,2.0,6.0,32,0.00,,,0.00,WUHU21623XXSP,2013-03-21 00:30:00,
2013-03-20 19:31:00,69.4,38.2,30.17,NE,51,3.0,6.0,32,0.00,,,0.00,WUHU21623XXSP,2013-03-21 00:31:00,
2013-03-20 19:32:00,69.3,38.0,30.17,East,86,3.0,6.0,32,0.00,,,0.00,WUHU21623XXSP,2013-03-21 00:32:00,
2013-03-20 19:34:00,69.3,38.0,30.17,ENE,59,4.0,5.0,32,0.00,,,0.00,WUHU21623XXSP,2013-03-21 00:34:00,
2013-03-20 19:35:00,69.1,37.9,30.17,NE,52,4.0,5.0,32,0.00,,,0.00,WUHU21623XXSP,2013-03-21 00:35:00,
2013-03-20 19:36:00,69.1,37.9,30.17,ENE,67,4.0,5.0,32,0.00,,,0.00,WUHU21623XXSP,2013-03-21 00:36:00,
2013-03-20 19:38:00,69.1,37.9,30.17,ENE,61,3.0,5.0,32,0.00,,,0.00,WUHU21623XXSP,2013-03-21 00:38:00,
2013-03-20 19:39:00,69.1,37.9,30.17,ENE,67,3.0,5.0,32,0.00,,,0.00,WUHU21623XXSP,2013-03-21 00:39:00,
2013-03-20 19:40:00,69.1,37.9,30.17,ENE,61,3.0,5.0,32,0.00,,,0.00,WUHU21623XXSP,2013-03-21 00:40:00,
2013-03-20 19:42:00,69.1,37.9,30.17,ENE,68,3.0,5.0,32,0.00,,,0.00,WUHU21623XXSP,2013-03-21 00:42:00,
2013-03-20 19:43:00,68.9,37.7,30.17,ENE,67,2.0,5.0,32,0.00,,,0.00,WUHU21623XXSP,2013-03-21 00:43:00,
2013-03-20 19:45:00,68.9,37.7,30.17,ENE,68,3.0,5.0,32,0.00,,,0.00,WUHU21623XXSP,2013-03-21 00:45:00,
2013-03-20 19:47:00,68.7,37.5,30.17,ENE,60,2.0,4.0,32,0.00,,,0.00,WUHU21623XXSP,2013-03-21 00:47:00,
2013-03-20 19:48:00,68.7,37.5,30.17,ENE,67,3.0,4.0,32,0.00,,,0.00,WUHU21623XXSP,2013-03-21 00:48:00,
2013-03-20 19:50:00,68.7,37.5,30.17,East,90,2.0,4.0,32,0.00,,,0.00,WUHU21623XXSP,2013-03-21 00:50:00,
2013-03-20 19:52:00,68.7,37.5,30.17,ENE,67,2.0,4.0,32,0.00,,,0.00,WUHU21623XXSP,2013-03-21 00:52:00,
2013-03-20 19:53:00,68.7,37.5,30.17,ENE,77,2.0,4.0,32,0.00,,,0.00,WUHU21623XXSP,2013-03-21 00:53:00,
2013-03-20 19:55:00,68.7,37.5,30.17,ENE,67,3.0,4.0,32,0.00,,,0.00,WUHU21623XXSP,2013-03-21 00:55:00,
2013-03-20 19:57:00,68.5,37.4,30.17,ENE,69,2.0,4.0,32,0.00,,,0.00,WUHU21623XXSP,2013-03-21 00:57:00,
2013-03-20 19:58:00,68.5,37.4,30.17,ENE,70,2.0,4.0,32,0.00,,,0.00,WUHU21623XXSP,2013-03-21 00:58:00,
2013-03-20 20:00:00,68.5,37.4,30.17,ENE,67,3.0,4.0,32,0.00,,,0.00,WUHU21623XXSP,2013-03-21 01:00:00,
2013-03-20 20:03:00,68.5,37.4,30.17,ENE,73,2.0,4.0,32,0.00,,,0.00,WUHU21623XXSP,2013-03-21 01:03:00,
2013-03-20 20:05:00,68.4,37.2,30.17,ENE,72,2.0,3.0,32,0.00,,,0.00,WUHU21623XXSP,2013-03-21 01:05:00,
2013-03-20 20:06:00,68.4,37.2,30.17,ENE,71,2.0,3.0,32,0.00,,,0.00,WUHU21623XXSP,2013-03-21 01:06:00,
2013-03-20 20:08:00,68.4,38.0,30.17,ENE,67,2.0,3.0,33,0.00,,,0.00,WUHU21623XXSP,2013-03-21 01:08:00,
2013-03-20 20:10:00,68.2,37.8,30.17,ESE,112,2.0,3.0,33,0.00,,,0.00,WUHU21623XXSP,2013-03-21 01:10:00,
2013-03-20 20:11:00,68.2,37.8,30.17,East,90,2.0,3.0,33,0.00,,,0.00,WUHU21623XXSP,2013-03-21 01:11:00,
2013-03-20 20:13:00,68.2,37.8,30.17,ENE,67,3.0,3.0,33,0.00,,,0.00,WUHU21623XXSP,2013-03-21 01:13:00,
2013-03-20 20:15:00,68.2,37.8,30.17,East,90,2.0,3.0,33,0.00,,,0.00,WUHU21623XXSP,2013-03-21 01:15:00,
2013-03-20 20:17:00,67.8,37.5,30.17,ENE,67,3.0,3.0,33,0.00,,,0.00,WUHU21623XXSP,2013-03-21 01:17:00,
2013-03-20 20:18:00,68.0,37.6,30.16,ENE,77,3.0,5.0,33,0.00,,,0.00,WUHU21623XXSP,2013-03-21 01:18:00,
2013-03-20 20:20:00,67.8,37.5,30.17,ENE,68,2.0,5.0,33,0.00,,,0.00,WUHU21623XXSP,2013-03-21 01:20:00,
2013-03-20 20:22:00,67.8,37.5,30.17,ENE,78,3.0,5.0,33,0.00,,,0.00,WUHU21623XXSP,2013-03-21 01:22:00,
2013-03-20 20:23:00,67.8,37.5,30.16,East,80,2.0,5.0,33,0.00,,,0.00,WUHU21623XXSP,2013-03-21 01:23:00,
2013-03-20 20:24:00,67.8,37.5,30.16,ENE,77,2.0,5.0,33,0.00,,,0.00,WUHU21623XXSP,2013-03-21 01:24:00,
2013-03-20 20:25:00,67.8,37.5,30.16,ENE,72,2.0,5.0,33,0.00,,,0.00,WUHU21623XXSP,2013-03-21 01:25:00,
2013-03-20 20:28:00,67.8,37.5,30.16,ENE,67,2.0,5.0,33,0.00,,,0.00,WUHU21623XXSP,2013-03-21 01:28:00,
2013-03-20 20:29:00,67.6,37.3,30.16,NE,45,0.0,5.0,33,0.00,,,0.00,WUHU21623XXSP,2013-03-21 01:29:00,
2013-03-20 20:30:00,67.6,37.3,30.16,ENE,67,2.0,5.0,33,0.00,,,0.00,WUHU21623XXSP,2013-03-21 01:30:00,
2013-03-20 20:33:00,67.6,37.3,30.16,ENE,67,2.0,3.0,33,0.00,,,0.00,WUHU21623XXSP,2013-03-21 01:33:00,
2013-03-20 20:34:00,67.6,37.3,30.17,ENE,67,2.0,3.0,33,0.00,,,0.00,WUHU21623XXSP,2013-03-21 01:34:00,
2013-03-20 20:35:00,67.5,37.2,30.17,East,90,0.0,2.0,33,0.00,,,0.00,WUHU21623XXSP,2013-03-21 01:35:00,
2013-03-20 20:39:00,67.3,37.0,30.17,ESE,112,0.0,2.0,33,0.00,,,0.00,WUHU21623XXSP,2013-03-21 01:39:00,
2013-03-20 20:41:00,67.3,37.0,30.17,ESE,112,3.0,3.0,33,0.00,,,0.00,WUHU21623XXSP,2013-03-21 01:41:00,
2013-03-20 20:44:00,67.3,37.0,30.17,East,81,2.0,3.0,33,0.00,,,0.00,WUHU21623XXSP,2013-03-21 01:44:00,
2013-03-20 20:45:00,67.3,37.0,30.16,East,81,2.0,3.0,33,0.00,,,0.00,WUHU21623XXSP,2013-03-21 01:45:00,
2013-03-20 20:46:00,67.1,36.9,30.17,East,90,0.0,3.0,33,0.00,,,0.00,WUHU21623XXSP,2013-03-21 01:46:00,
2013-03-20 20:49:00,67.1,36.9,30.17,East,90,0.0,3.0,33,0.00,,,0.00,WUHU21623XXSP,2013-03-21 01:49:00,
2013-03-20 20:50:00,66.9,36.7,30.17,East,90,0.0,3.0,33,0.00,,,0.00,WUHU21623XXSP,2013-03-21 01:50:00,
2013-03-20 20:51:00,66.9,36.7,30.17,ENE,67,0.0,3.0,33,0.00,,,0.00,WUHU21623XXSP,2013-03-21 01:51:00,
2013-03-20 20:54:00,66.9,36.7,30.16,ENE,73,2.0,3.0,33,0.00,,,0.00,WUHU21623XXSP,2013-03-21 01:54:00,
2013-03-20 20:55:00,66.9,36.7,30.16,ENE,73,1.0,3.0,33,0.00,,,0.00,WUHU21623XXSP,2013-03-21 01:55:00,
2013-03-20 20:57:00,66.7,36.6,30.16,East,80,2.0,3.0,33,0.00,,,0.00,WUHU21623XXSP,2013-03-21 01:57:00,
2013-03-20 20:59:00,66.7,36.6,30.16,East,97,2.0,3.0,33,0.00,,,0.00,WUHU21623XXSP,2013-03-21 01:59:00,
2013-03-20 21:00:00,66.7,36.6,30.16,East,90,2.0,3.0,33,0.00,,,0.00,WUHU21623XXSP,2013-03-21 02:00:00,
2013-03-20 21:02:00,66.7,36.6,30.16,ENE,67,0.0,2.0,33,0.00,,,0.00,WUHU21623XXSP,2013-03-21 02:02:00,
2013-03-20 21:04:00,66.6,36.4,30.16,ENE,67,0.0,2.0,33,0.00,,,0.00,WUHU21623XXSP,2013-03-21 02:04:00,
2013-03-20 21:05:00,66.6,36.4,30.16,ESE,112,0.0,2.0,33,0.00,,,0.00,WUHU21623XXSP,2013-03-21 02:05:00,
2013-03-20 21:06:00,66.6,36.4,30.16,East,90,0.0,2.0,33,0.00,,,0.00,WUHU21623XXSP,2013-03-21 02:06:00,
2013-03-20 21:07:00,66.6,36.4,30.16,ENE,75,2.0,2.0,33,0.00,,,0.00,WUHU21623XXSP,2013-03-21 02:07:00,
2013-03-20 21:09:00,66.4,36.3,30.16,East,79,2.0,2.0,33,0.00,,,0.00,WUHU21623XXSP,2013-03-21 02:09:00,
2013-03-20 21:10:00,66.4,36.3,30.16,ENE,67,2.0,2.0,33,0.00,,,0.00,WUHU21623XXSP,2013-03-21 02:10:00,
2013-03-20 21:12:00,66.4,36.3,30.16,East,90,2.0,2.0,33,0.00,,,0.00,WUHU21623XXSP,2013-03-21 02:12:00,
2013-03-20 21:13:00,66.4,36.3,30.16,ESE,104,2.0,2.0,33,0.00,,,0.00,WUHU21623XXSP,2013-03-21 02:13:00,
2013-03-20 21:14:00,66.4,36.3,30.16,ESE,112,2.0,2.0,33,0.00,,,0.00,WUHU21623XXSP,2013-03-21 02:14:00,
2013-03-20 21:15:00,66.4,36.3,30.16,ESE,114,2.0,2.0,33,0.00,,,0.00,WUHU21623XXSP,2013-03-21 02:15:00,
2013-03-20 21:17:00,66.2,36.1,30.16,ESE,112,2.0,3.0,33,0.00,,,0.00,WUHU21623XXSP,2013-03-21 02:17:00,
2013-03-20 21:18:00,66.2,36.1,30.16,ESE,108,2.0,3.0,33,0.00,,,0.00,WUHU21623XXSP,2013-03-21 02:18:00,
2013-03-20 21:19:00,66.0,36.7,30.16,ESE,106,1.0,3.0,34,0.00,,,0.00,WUHU21623XXSP,2013-03-21 02:19:00,
2013-03-20 21:20:00,66.0,36.7,30.16,ESE,112,2.0,3.0,34,0.00,,,0.00,WUHU21623XXSP,2013-03-21 02:20:00,
2013-03-20 21:22:00,66.0,36.7,30.15,ESE,112,1.0,3.0,34,0.00,,,0.00,WUHU21623XXSP,2013-03-21 02:22:00,
2013-03-20 21:23:00,66.0,36.7,30.15,East,80,2.0,3.0,34,0.00,,,0.00,WUHU21623XXSP,2013-03-21 02:23:00,
2013-03-20 21:24:00,66.0,36.7,30.15,East,90,2.0,3.0,34,0.00,,,0.00,WUHU21623XXSP,2013-03-21 02:24:00,
2013-03-20 21:25:00,66.0,36.7,30.15,East,87,2.0,3.0,34,0.00,,,0.00,WUHU21623XXSP,2013-03-21 02:25:00,
2013-03-20 21:27:00,66.0,36.7,30.15,East,92,3.0,4.0,34,0.00,,,0.00,WUHU21623XXSP,2013-03-21 02:27:00,
2013-03-20 21:28:00,66.0,36.7,30.15,East,100,3.0,4.0,34,0.00,,,0.00,WUHU21623XXSP,2013-03-21 02:28:00,
2013-03-20 21:29:00,66.0,36.7,30.15,ESE,112,3.0,4.0,34,0.00,,,0.00,WUHU21623XXSP,2013-03-21 02:29:00,
2013-03-20 21:30:00,66.0,36.7,30.15,ESE,115,3.0,4.0,34,0.00,,,0.00,WUHU21623XXSP,2013-03-21 02:30:00,
2013-03-20 21:33:00,65.8,36.5,30.15,ESE,108,3.0,4.0,34,0.00,,,0.00,WUHU21623XXSP,2013-03-21 02:33:00,
2013-03-20 21:34:00,65.8,36.5,30.16,East,90,3.0,4.0,34,0.00,,,0.00,WUHU21623XXSP,2013-03-21 02:34:00,
2013-03-20 21:35:00,65.8,36.5,30.16,ESE,102,4.0,4.0,34,0.00,,,0.00,WUHU21623XXSP,2013-03-21 02:35:00,
2013-03-20 21:38:00,65.7,36.4,30.15,ESE,112,6.0,6.0,34,0.00,,,0.00,WUHU21623XXSP,2013-03-21 02:38:00,
2013-03-20 21:39:00,65.7,36.4,30.15,East,92,5.0,6.0,34,0.00,,,0.00,WUHU21623XXSP,2013-03-21 02:39:00,
2013-03-20 21:40:00,65.7,36.4,30.15,ESE,112,5.0,6.0,34,0.00,,,0.00,WUHU21623XXSP,2013-03-21 02:40:00,
2013-03-20 21:43:00,65.5,36.2,30.15,East,87,4.0,6.0,34,0.00,,,0.00,WUHU21623XXSP,2013-03-21 02:43:00,
2013-03-20 21:44:00,65.5,36.2,30.15,ENE,67,4.0,6.0,34,0.00,,,0.00,WUHU21623XXSP,2013-03-21 02:44:00,
2013-03-20 21:45:00,65.5,36.2,30.15,East,90,5.0,6.0,34,0.00,,,0.00,WUHU21623XXSP,2013-03-21 02:45:00,
2013-03-20 21:48:00,65.3,36.0,30.15,ENE,67,5.0,5.0,34,0.00,,,0.00,WUHU21623XXSP,2013-03-21 02:48:00,
2013-03-20 21:49:00,65.3,36.0,30.15,East,90,4.0,5.0,34,0.00,,,0.00,WUHU21623XXSP,2013-03-21 02:49:00,
2013-03-20 21:50:00,65.3,36.0,30.15,ENE,67,5.0,5.0,34,0.00,,,0.00,WUHU21623XXSP,2013-03-21 02:50:00,
2013-03-20 21:51:00,65.3,36.8,30.15,ENE,67,5.0,5.0,35,0.00,,,0.00,WUHU21623XXSP,2013-03-21 02:51:00,
2013-03-20 21:53:00,65.3,36.8,30.15,East,90,5.0,6.0,35,0.00,,,0.00,WUHU21623XXSP,2013-03-21 02:53:00,
2013-03-20 21:54:00,65.3,36.8,30.15,East,95,4.0,6.0,35,0.00,,,0.00,WUHU21623XXSP,2013-03-21 02:54:00,
2013-03-20 21:55:00,65.1,36.6,30.15,East,90,5.0,6.0,35,0.00,,,0.00,WUHU21623XXSP,2013-03-21 02:55:00,
2013-03-20 21:56:00,65.1,36.6,30.15,ESE,105,4.0,6.0,35,0.00,,,0.00,WUHU21623XXSP,2013-03-21 02:56:00,
2013-03-20 21:58:00,65.1,36.6,30.14,East,94,5.0,7.0,35,0.00,,,0.00,WUHU21623XXSP,2013-03-21 02:58:00,
2013-03-20 21:59:00,65.1,36.6,30.14,East,97,4.0,7.0,35,0.00,,,0.00,WUHU21623XXSP,2013-03-21 02:59:00,
2013-03-20 22:00:00,65.1,36.6,30.15,ESE,102,3.0,7.0,35,0.00,,,0.00,WUHU21623XXSP,2013-03-21 03:00:00,
2013-03-20 22:01:00,65.1,36.6,30.14,ESE,112,3.0,7.0,35,0.00,,,0.00,WUHU21623XXSP,2013-03-21 03:01:00,
2013-03-20 22:04:00,64.9,36.4,30.14,East,90,3.0,7.0,35,0.00,,,0.00,WUHU21623XXSP,2013-03-21 03:04:00,
2013-03-20 22:05:00,64.9,36.4,30.14,East,94,3.0,7.0,35,0.00,,,0.00,WUHU21623XXSP,2013-03-21 03:05:00,
2013-03-20 22:06:00,64.9,36.4,30.14,East,94,3.0,7.0,35,0.00,,,0.00,WUHU21623XXSP,2013-03-21 03:06:00,
2013-03-20 22:09:00,64.9,36.4,30.15,ESE,108,3.0,6.0,35,0.00,,,0.00,WUHU21623XXSP,2013-03-21 03:09:00,
2013-03-20 22:10:00,64.8,36.3,30.15,ESE,112,5.0,6.0,35,0.00,,,0.00,WUHU21623XXSP,2013-03-21 03:10:00,
2013-03-20 22:11:00,64.8,36.3,30.15,ESE,112,5.0,6.0,35,0.00,,,0.00,WUHU21623XXSP,2013-03-21 03:11:00,
2013-03-20 22:14:00,64.8,36.3,30.14,ESE,110,3.0,5.0,35,0.00,,,0.00,WUHU21623XXSP,2013-03-21 03:14:00,
2013-03-20 22:16:00,64.6,36.1,30.14,East,97,3.0,5.0,35,0.00,,,0.00,WUHU21623XXSP,2013-03-21 03:16:00,
2013-03-20 22:19:00,64.6,36.8,30.14,ESE,111,2.0,5.0,36,0.00,,,0.00,WUHU21623XXSP,2013-03-21 03:19:00,
2013-03-20 22:21:00,64.6,36.8,30.14,ESE,112,4.0,5.0,36,0.00,,,0.00,WUHU21623XXSP,2013-03-21 03:21:00,
2013-03-20 22:22:00,64.6,36.8,30.14,ESE,112,5.0,5.0,36,0.00,,,0.00,WUHU21623XXSP,2013-03-21 03:22:00,
2013-03-20 22:24:00,64.4,36.7,30.14,ESE,112,2.0,5.0,36,0.00,,,0.00,WUHU21623XXSP,2013-03-21 03:24:00,
2013-03-20 22:26:00,64.2,36.5,30.14,East,91,2.0,5.0,36,0.00,,,0.00,WUHU21623XXSP,2013-03-21 03:26:00,
2013-03-20 22:27:00,64.2,36.5,30.14,East,86,2.0,5.0,36,0.00,,,0.00,WUHU21623XXSP,2013-03-21 03:27:00,
2013-03-20 22:29:00,64.2,36.5,30.14,ESE,112,3.0,5.0,36,0.00,,,0.00,WUHU21623XXSP,2013-03-21 03:29:00,
2013-03-20 22:31:00,64.2,36.5,30.14,ESE,112,2.0,5.0,36,0.00,,,0.00,WUHU21623XXSP,2013-03-21 03:31:00,
2013-03-20 22:32:00,64.2,36.5,30.14,ESE,109,2.0,4.0,36,0.00,,,0.00,WUHU21623XXSP,2013-03-21 03:32:00,
2013-03-20 22:34:00,64.2,36.5,30.14,ESE,112,2.0,4.0,36,0.00,,,0.00,WUHU21623XXSP,2013-03-21 03:34:00,
2013-03-20 22:35:00,64.2,36.5,30.14,ESE,105,1.0,4.0,36,0.00,,,0.00,WUHU21623XXSP,2013-03-21 03:35:00,
2013-03-20 22:36:00,64.2,36.5,30.14,East,88,2.0,4.0,36,0.00,,,0.00,WUHU21623XXSP,2013-03-21 03:36:00,
2013-03-20 22:37:00,64.2,36.5,30.14,East,86,2.0,4.0,36,0.00,,,0.00,WUHU21623XXSP,2013-03-21 03:37:00,
2013-03-20 22:39:00,64.0,35.6,30.14,East,80,2.0,4.0,35,0.00,,,0.00,WUHU21623XXSP,2013-03-21 03:39:00,
2013-03-20 22:40:00,64.0,35.6,30.14,ESE,112,2.0,4.0,35,0.00,,,0.00,WUHU21623XXSP,2013-03-21 03:40:00,
2013-03-20 22:41:00,64.0,35.6,30.14,East,88,2.0,4.0,35,0.00,,,0.00,WUHU21623XXSP,2013-03-21 03:41:00,
2013-03-20 22:42:00,64.0,35.6,30.14,ESE,108,2.0,4.0,35,0.00,,,0.00,WUHU21623XXSP,2013-03-21 03:42:00,
2013-03-20 22:44:00,64.0,35.6,30.14,East,98,2.0,4.0,35,0.00,,,0.00,WUHU21623XXSP,2013-03-21 03:44:00,
2013-03-20 22:45:00,64.0,35.6,30.14,East,90,2.0,4.0,35,0.00,,,0.00,WUHU21623XXSP,2013-03-21 03:45:00,
2013-03-20 22:46:00,64.0,35.6,30.14,ENE,67,2.0,4.0,35,0.00,,,0.00,WUHU21623XXSP,2013-03-21 03:46:00,
2013-03-20 22:47:00,64.0,35.6,30.14,East,90,3.0,4.0,35,0.00,,,0.00,WUHU21623XXSP,2013-03-21 03:47:00,
2013-03-20 22:49:00,63.9,36.2,30.14,East,87,3.0,4.0,36,0.00,,,0.00,WUHU21623XXSP,2013-03-21 03:49:00,
2013-03-20 22:50:00,63.9,36.2,30.14,East,89,2.0,4.0,36,0.00,,,0.00,WUHU21623XXSP,2013-03-21 03:50:00,
2013-03-20 22:52:00,63.7,36.0,30.14,East,90,3.0,4.0,36,0.00,,,0.00,WUHU21623XXSP,2013-03-21 03:52:00,
2013-03-20 22:53:00,63.7,36.0,30.13,East,90,4.0,4.0,36,0.00,,,0.00,WUHU21623XXSP,2013-03-21 03:53:00,
2013-03-20 22:55:00,63.7,36.0,30.13,ESE,112,4.0,4.0,36,0.00,,,0.00,WUHU21623XXSP,2013-03-21 03:55:00,
2013-03-20 22:56:00,63.7,36.0,30.13,East,97,3.0,4.0,36,0.00,,,0.00,WUHU21623XXSP,2013-03-21 03:56:00,
2013-03-20 22:57:00,63.7,36.0,30.13,ESE,102,2.0,4.0,36,0.00,,,0.00,WUHU21623XXSP,2013-03-21 03:57:00,
2013-03-20 22:58:00,63.7,36.0,30.13,East,90,5.0,5.0,36,0.00,,,0.00,WUHU21623XXSP,2013-03-21 03:58:00,
2013-03-20 23:00:00,63.7,36.0,30.13,East,90,3.0,5.0,36,0.00,,,0.00,WUHU21623XXSP,2013-03-21 04:00:00,
2013-03-20 23:05:00,63.5,35.9,30.13,East,91,4.0,5.0,36,0.00,,,0.00,WUHU21623XXSP,2013-03-21 04:05:00,
2013-03-20 23:10:00,63.3,35.7,30.12,East,96,3.0,5.0,36,0.00,,,0.00,WUHU21623XXSP,2013-03-21 04:10:00,
2013-03-20 23:12:00,63.3,35.7,30.12,East,90,2.0,5.0,36,0.00,,,0.00,WUHU21623XXSP,2013-03-21 04:12:00,
2013-03-20 23:15:00,63.3,35.7,30.12,East,90,5.0,5.0,36,0.00,,,0.00,WUHU21623XXSP,2013-03-21 04:15:00,
2013-03-20 23:17:00,63.3,35.7,30.13,East,90,4.0,5.0,36,0.00,,,0.00,WUHU21623XXSP,2013-03-21 04:17:00,
2013-03-20 23:20:00,63.1,35.5,30.12,East,95,2.0,5.0,36,0.00,,,0.00,WUHU21623XXSP,2013-03-21 04:20:00,
2013-03-20 23:22:00,63.1,35.5,30.12,East,96,4.0,6.0,36,0.00,,,0.00,WUHU21623XXSP,2013-03-21 04:22:00,
2013-03-20 23:25:00,63.1,36.3,30.12,East,98,3.0,6.0,37,0.00,,,0.00,WUHU21623XXSP,2013-03-21 04:25:00,
2013-03-20 23:26:00,63.1,36.3,30.12,East,95,3.0,6.0,37,0.00,,,0.00,WUHU21623XXSP,2013-03-21 04:26:00,
2013-03-20 23:27:00,63.1,36.3,30.12,East,89,3.0,6.0,37,0.00,,,0.00,WUHU21623XXSP,2013-03-21 04:27:00,
2013-03-20 23:30:00,63.0,36.1,30.12,ESE,112,3.0,6.0,37,0.00,,,0.00,WUHU21623XXSP,2013-03-21 04:30:00,
2013-03-20 23:31:00,63.0,36.1,30.12,ESE,104,3.0,5.0,37,0.00,,,0.00,WUHU21623XXSP,2013-03-21 04:31:00,
2013-03-20 23:32:00,63.0,36.1,30.12,ESE,112,3.0,4.0,37,0.00,,,0.00,WUHU21623XXSP,2013-03-21 04:32:00,
2013-03-20 23:35:00,63.0,36.1,30.11,East,95,3.0,4.0,37,0.00,,,0.00,WUHU21623XXSP,2013-03-21 04:35:00,
2013-03-20 23:36:00,63.0,36.1,30.11,East,91,3.0,4.0,37,0.00,,,0.00,WUHU21623XXSP,2013-03-21 04:36:00,
2013-03-20 23:37:00,62.8,35.9,30.11,East,90,4.0,5.0,37,0.00,,,0.00,WUHU21623XXSP,2013-03-21 04:37:00,
2013-03-20 23:40:00,62.8,35.9,30.11,ESE,109,3.0,5.0,37,0.00,,,0.00,WUHU21623XXSP,2013-03-21 04:40:00,
2013-03-20 23:41:00,62.8,35.9,30.11,East,96,3.0,5.0,37,0.00,,,0.00,WUHU21623XXSP,2013-03-21 04:41:00,
2013-03-20 23:42:00,62.8,35.9,30.11,East,90,3.0,5.0,37,0.00,,,0.00,WUHU21623XXSP,2013-03-21 04:42:00,
2013-03-20 23:45:00,62.8,35.9,30.11,ESE,112,3.0,5.0,37,0.00,,,0.00,WUHU21623XXSP,2013-03-21 04:45:00,
2013-03-20 23:47:00,62.6,35.8,30.11,East,98,3.0,5.0,37,0.00,,,0.00,WUHU21623XXSP,2013-03-21 04:47:00,
2013-03-20 23:48:00,62.6,35.8,30.11,East,94,2.0,5.0,37,0.00,,,0.00,WUHU21623XXSP,2013-03-21 04:48:00,
2013-03-20 23:50:00,62.6,35.8,30.12,East,99,2.0,4.0,37,0.00,,,0.00,WUHU21623XXSP,2013-03-21 04:50:00,
2013-03-20 23:52:00,62.4,35.6,30.12,East,90,2.0,4.0,37,0.00,,,0.00,WUHU21623XXSP,2013-03-21 04:52:00,
2013-03-20 23:53:00,62.4,35.6,30.12,East,90,0.0,4.0,37,0.00,,,0.00,WUHU21623XXSP,2013-03-21 04:53:00,
2013-03-20 23:55:00,62.4,35.6,30.12,East,90,1.0,3.0,37,0.00,,,0.00,WUHU21623XXSP,2013-03-21 04:55:00,
2013-03-20 23:57:00,62.4,35.6,30.12,East,80,2.0,3.0,37,0.00,,,0.00,WUHU21623XXSP,2013-03-21 04:57:00,
2013-03-20 23:58:00,62.4,35.6,30.11,ENE,67,2.0,3.0,37,0.00,,,0.00,WUHU21623XXSP,2013-03-21 04:58:00,